Wetterdaten: Sonntag, 20.02.2022
Datum Zeit Temp. Aussen Temp. o. S. Temp +5cm Feuchte Auss Luftdruck Regen Sonnenschein Regendauer Solar Windben Empfang
20.02.2022 00:00 6,9 C 5,6 C 2,2 C 92 % 1007,3 hPa 0,2 l/m 0 min 2 min 0 W/m 29,0 km/h (5 Bft) 93,62 %
20.02.2022 00:02 6,9 C 5,6 C 2,2 C 93 % 1007,5 hPa 0,0 l/m 0 min 2 min 0 W/m 22,5 km/h (4 Bft) 90,70 %
20.02.2022 00:04 6,9 C 5,6 C 2,2 C 93 % 1007,7 hPa 0,2 l/m 0 min 2 min 0 W/m 25,7 km/h (4 Bft) 95,74 %
20.02.2022 00:08 6,9 C 5,6 C 2,2 C 93 % 1007,9 hPa 1,0 l/m 0 min 4 min 0 W/m 19,3 km/h (3 Bft) 100,00 %
20.02.2022 00:10 6,8 C 5,0 C 2,2 C 93 % 1007,8 hPa 0,2 l/m 0 min 2 min 0 W/m 29,0 km/h (5 Bft) 93,48 %
20.02.2022 00:12 6,7 C 5,0 C 2,2 C 93 % 1007,9 hPa 0,0 l/m 0 min 2 min 0 W/m 19,3 km/h (3 Bft) 93,62 %
20.02.2022 00:14 6,5 C 5,0 C 2,2 C 93 % 1007,9 hPa 0,0 l/m 0 min 0 min 0 W/m 16,1 km/h (3 Bft) 91,49 %
20.02.2022 00:16 6,4 C 5,0 C 2,2 C 93 % 1007,8 hPa 0,0 l/m 0 min 0 min 0 W/m 19,3 km/h (3 Bft) 93,62 %
20.02.2022 00:18 6,3 C 5,0 C 2,2 C 93 % 1007,9 hPa 0,0 l/m 0 min 2 min 0 W/m 22,5 km/h (4 Bft) 93,62 %
20.02.2022 00:20 6,3 C 5,0 C 2,2 C 93 % 1007,9 hPa 0,0 l/m 0 min 2 min 0 W/m 19,3 km/h (3 Bft) 93,62 %
20.02.2022 00:22 6,3 C 5,0 C 2,2 C 94 % 1007,9 hPa 0,0 l/m 0 min 0 min 0 W/m 25,7 km/h (4 Bft) 93,48 %
20.02.2022 00:24 6,5 C 5,6 C 2,2 C 94 % 1007,8 hPa 0,0 l/m 0 min 0 min 0 W/m 45,1 km/h (6 Bft) 95,74 %
20.02.2022 00:26 6,5 C 5,6 C 2,2 C 94 % 1007,7 hPa 0,0 l/m 0 min 0 min 0 W/m 29,0 km/h (5 Bft) 93,62 %
20.02.2022 00:28 6,6 C 5,6 C 2,2 C 94 % 1007,7 hPa 0,0 l/m 0 min 0 min 0 W/m 25,7 km/h (4 Bft) 93,62 %
20.02.2022 00:30 6,7 C 5,6 C 2,2 C 94 % 1007,8 hPa 0,0 l/m 0 min 0 min 0 W/m 29,0 km/h (5 Bft) 97,87 %
20.02.2022 00:32 6,7 C 5,6 C 2,2 C 94 % 1007,9 hPa 0,0 l/m 0 min 0 min 0 W/m 22,5 km/h (4 Bft) 93,48 %
20.02.2022 00:34 6,8 C 5,6 C 2,2 C 93 % 1007,7 hPa 0,0 l/m 0 min 0 min 0 W/m 22,5 km/h (4 Bft) 95,74 %
20.02.2022 00:36 6,8 C 5,6 C 2,2 C 93 % 1007,9 hPa 0,0 l/m 0 min 0 min 0 W/m 35,4 km/h (5 Bft) 93,75 %
20.02.2022 00:38 6,8 C 6,1 C 2,2 C 93 % 1007,9 hPa 0,0 l/m 0 min 0 min 0 W/m 25,7 km/h (4 Bft) 95,74 %
20.02.2022 00:40 6,8 C 5,6 C 2,2 C 92 % 1007,9 hPa 0,0 l/m 0 min 0 min 0 W/m 32,2 km/h (5 Bft) 95,74 %
20.02.2022 00:42 6,8 C 5,6 C 2,2 C 92 % 1008,1 hPa 0,0 l/m 0 min 0 min 0 W/m 32,2 km/h (5 Bft) 97,92 %
20.02.2022 00:44 6,8 C 5,6 C 2,2 C 91 % 1008,1 hPa 0,0 l/m 0 min 0 min 0 W/m 25,7 km/h (4 Bft) 97,83 %
20.02.2022 00:46 6,9 C 5,6 C 2,2 C 91 % 1008,1 hPa 0,0 l/m 0 min 0 min 0 W/m 25,7 km/h (4 Bft) 97,87 %
20.02.2022 00:48 6,8 C 5,6 C 2,2 C 90 % 1008,2 hPa 0,0 l/m 0 min 0 min 0 W/m 35,4 km/h (5 Bft) 100,00 %
20.02.2022 00:50 6,8 C 5,6 C 2,2 C 90 % 1008,4 hPa 0,0 l/m 0 min 0 min 0 W/m 29,0 km/h (5 Bft) 97,87 %
20.02.2022 00:52 6,8 C 5,6 C 2,2 C 89 % 1008,3 hPa 0,0 l/m 0 min 0 min 0 W/m 35,4 km/h (5 Bft) 100,00 %
20.02.2022 00:54 6,8 C 5,6 C 1,7 C 88 % 1008,6 hPa 0,0 l/m 0 min 0 min 0 W/m 45,1 km/h (6 Bft) 97,87 %
20.02.2022 00:56 6,8 C 5,6 C 1,7 C 88 % 1008,2 hPa 0,0 l/m 0 min 0 min 0 W/m 35,4 km/h (5 Bft) 100,00 %
20.02.2022 00:58 6,9 C 5,6 C 1,7 C 87 % 1008,9 hPa 0,2 l/m 0 min 0 min 0 W/m 38,6 km/h (5 Bft) 100,00 %
20.02.2022 01:00 6,9 C 5,6 C 1,7 C 86 % 1008,5 hPa 0,0 l/m 0 min 0 min 0 W/m 29,0 km/h (5 Bft) 100,00 %
20.02.2022 01:02 6,9 C 5,6 C 1,7 C 86 % 1008,6 hPa 0,0 l/m 0 min 0 min 0 W/m 25,7 km/h (4 Bft) 100,00 %
20.02.2022 01:04 6,9 C 5,6 C 1,7 C 86 % 1008,6 hPa 0,0 l/m 0 min 0 min 0 W/m 22,5 km/h (4 Bft) 97,87 %
20.02.2022 01:06 6,9 C 5,6 C 1,7 C 86 % 1008,8 hPa 0,0 l/m 0 min 0 min 0 W/m 38,6 km/h (5 Bft) 100,00 %
20.02.2022 01:08 6,9 C 5,6 C 1,7 C 85 % 1008,8 hPa 0,0 l/m 0 min 0 min 0 W/m 35,4 km/h (5 Bft) 100,00 %
20.02.2022 01:10 6,9 C 5,6 C 1,7 C 85 % 1008,9 hPa 0,0 l/m 0 min 0 min 0 W/m 35,4 km/h (5 Bft) 100,00 %
20.02.2022 01:12 6,9 C 5,6 C 1,7 C 85 % 1008,9 hPa 0,0 l/m 0 min 0 min 0 W/m 22,5 km/h (4 Bft) 100,00 %
20.02.2022 01:14 6,9 C 5,6 C 1,7 C 85 % 1008,9 hPa 0,0 l/m 0 min 0 min 0 W/m 19,3 km/h (3 Bft) 100,00 %
20.02.2022 01:16 6,9 C 5,6 C 1,7 C 86 % 1009,0 hPa 0,0 l/m 0 min 0 min 0 W/m 25,7 km/h (4 Bft) 100,00 %
20.02.2022 01:18 6,8 C 5,6 C 1,7 C 86 % 1009,1 hPa 0,0 l/m 0 min 0 min 0 W/m 35,4 km/h (5 Bft) 100,00 %
20.02.2022 01:20 6,8 C 5,6 C 1,7 C 86 % 1009,3 hPa 0,0 l/m 0 min 0 min 0 W/m 22,5 km/h (4 Bft) 100,00 %
20.02.2022 01:22 6,8 C 5,6 C 1,7 C 86 % 1009,3 hPa 0,0 l/m 0 min 0 min 0 W/m 22,5 km/h (4 Bft) 100,00 %
20.02.2022 01:24 6,8 C 5,6 C 1,7 C 86 % 1009,2 hPa 0,0 l/m 0 min 0 min 0 W/m 32,2 km/h (5 Bft) 100,00 %
20.02.2022 01:26 6,7 C 5,6 C 1,7 C 87 % 1009,4 hPa 0,0 l/m 0 min 0 min 0 W/m 38,6 km/h (5 Bft) 97,87 %
20.02.2022 01:28 6,7 C 5,6 C 1,7 C 86 % 1009,5 hPa 0,0 l/m 0 min 0 min 0 W/m 41,8 km/h (6 Bft) 100,00 %
20.02.2022 01:30 6,6 C 5,6 C 1,7 C 86 % 1009,7 hPa 0,0 l/m 0 min 0 min 0 W/m 45,1 km/h (6 Bft) 100,00 %
20.02.2022 01:32 6,5 C 5,6 C 1,7 C 86 % 1009,8 hPa 0,0 l/m 0 min 0 min 0 W/m 32,2 km/h (5 Bft) 95,74 %
20.02.2022 01:34 6,3 C 5,0 C 1,1 C 86 % 1009,7 hPa 0,0 l/m 0 min 0 min 0 W/m 32,2 km/h (5 Bft) 100,00 %
20.02.2022 01:36 6,3 C 5,0 C 1,1 C 86 % 1009,9 hPa 0,0 l/m 0 min 0 min 0 W/m 25,7 km/h (4 Bft) 100,00 %
20.02.2022 01:38 6,1 C 5,0 C 1,1 C 85 % 1009,8 hPa 0,0 l/m 0 min 0 min 0 W/m 38,6 km/h (5 Bft) 97,87 %
20.02.2022 01:40 6,0 C 5,0 C 1,1 C 85 % 1009,8 hPa 0,0 l/m 0 min 0 min 0 W/m 29,0 km/h (5 Bft) 100,00 %
20.02.2022 01:42 5,9 C 5,0 C 1,1 C 85 % 1010,3 hPa 0,0 l/m 0 min 0 min 0 W/m 32,2 km/h (5 Bft) 100,00 %
20.02.2022 01:44 5,9 C 5,0 C 1,1 C 86 % 1010,0 hPa 0,0 l/m 0 min 0 min 0 W/m 35,4 km/h (5 Bft) 100,00 %
20.02.2022 01:46 5,8 C 5,0 C 1,1 C 86 % 1010,3 hPa 0,0 l/m 0 min 0 min 0 W/m 35,4 km/h (5 Bft) 100,00 %
20.02.2022 01:48 5,8 C 4,4 C 0,6 C 85 % 1010,2 hPa 0,0 l/m 0 min 0 min 0 W/m 22,5 km/h (4 Bft) 100,00 %
20.02.2022 01:50 5,7 C 4,4 C 0,6 C 85 % 1010,2 hPa 0,0 l/m 0 min 0 min 0 W/m 35,4 km/h (5 Bft) 100,00 %
20.02.2022 01:52 5,7 C 4,4 C 0,6 C 85 % 1010,1 hPa 0,0 l/m 0 min 0 min 0 W/m 54,7 km/h (7 Bft) 97,87 %
20.02.2022 01:54 5,7 C 4,4 C 0,6 C 85 % 1010,3 hPa 0,0 l/m 0 min 0 min 0 W/m 25,7 km/h (4 Bft) 100,00 %
20.02.2022 01:56 5,6 C 4,4 C 0,6 C 85 % 1010,4 hPa 0,0 l/m 0 min 0 min 0 W/m 32,2 km/h (5 Bft) 97,83 %
20.02.2022 01:58 5,6 C 4,4 C 1,1 C 86 % 1010,3 hPa 0,0 l/m 0 min 0 min 0 W/m 25,7 km/h (4 Bft) 100,00 %
20.02.2022 02:00 5,6 C 4,4 C 1,1 C 86 % 1010,6 hPa 0,0 l/m 0 min 0 min 0 W/m 48,3 km/h (6 Bft) 97,87 %
20.02.2022 02:02 5,6 C 4,4 C 1,1 C 86 % 1010,6 hPa 0,0 l/m 0 min 0 min 0 W/m 29,0 km/h (5 Bft) 97,87 %
20.02.2022 02:04 5,5 C 4,4 C 1,1 C 86 % 1010,5 hPa 0,0 l/m 0 min 0 min 0 W/m 32,2 km/h (5 Bft) 97,87 %
20.02.2022 02:06 5,5 C 4,4 C 1,1 C 86 % 1010,5 hPa 0,0 l/m 0 min 0 min 0 W/m 38,6 km/h (5 Bft) 95,74 %
20.02.2022 02:08 5,5 C 4,4 C 1,1 C 86 % 1010,6 hPa 0,0 l/m 0 min 0 min 0 W/m 35,4 km/h (5 Bft) 94,44 %
20.02.2022 02:10 5,5 C 4,4 C 1,1 C 86 % 1010,6 hPa 0,0 l/m 0 min 0 min 0 W/m 41,8 km/h (6 Bft) 95,74 %
20.02.2022 02:12 5,4 C 4,4 C 1,1 C 86 % 1010,8 hPa 0,0 l/m 0 min 0 min 0 W/m 32,2 km/h (5 Bft) 95,83 %
20.02.2022 02:14 5,4 C 4,4 C 1,1 C 86 % 1010,8 hPa 0,0 l/m 0 min 0 min 0 W/m 38,6 km/h (5 Bft) 93,62 %
20.02.2022 02:16 5,4 C 4,4 C 1,1 C 86 % 1010,9 hPa 0,0 l/m 0 min 0 min 0 W/m 35,4 km/h (5 Bft) 95,74 %
20.02.2022 02:18 5,3 C 4,4 C 1,1 C 86 % 1011,0 hPa 0,0 l/m 0 min 0 min 0 W/m 32,2 km/h (5 Bft) 95,65 %
20.02.2022 02:20 5,3 C 4,4 C 1,1 C 86 % 1010,9 hPa 0,0 l/m 0 min 0 min 0 W/m 25,7 km/h (4 Bft) 93,62 %
20.02.2022 02:22 5,2 C 4,4 C 1,1 C 86 % 1010,9 hPa 0,0 l/m 0 min 0 min 0 W/m 29,0 km/h (5 Bft) 95,74 %
20.02.2022 02:24 5,2 C 4,4 C 1,1 C 86 % 1011,1 hPa 0,0 l/m 0 min 0 min 0 W/m 29,0 km/h (5 Bft) 95,74 %
20.02.2022 02:26 5,2 C 4,4 C 1,1 C 86 % 1010,9 hPa 0,0 l/m 0 min 0 min 0 W/m 25,7 km/h (4 Bft) 95,74 %
20.02.2022 02:28 5,2 C 4,4 C 1,1 C 86 % 1011,0 hPa 0,0 l/m 0 min 0 min 0 W/m 22,5 km/h (4 Bft) 97,87 %
20.02.2022 02:30 5,2 C 4,4 C 1,1 C 86 % 1011,1 hPa 0,0 l/m 0 min 0 min 0 W/m 22,5 km/h (4 Bft) 97,83 %
20.02.2022 02:32 5,2 C 4,4 C 1,1 C 86 % 1011,2 hPa 0,0 l/m 0 min 0 min 0 W/m 12,9 km/h (3 Bft) 95,83 %
20.02.2022 02:34 5,2 C 4,4 C 1,1 C 87 % 1011,4 hPa 0,0 l/m 0 min 0 min 0 W/m 25,7 km/h (4 Bft) 97,87 %
20.02.2022 02:36 5,2 C 4,4 C 1,1 C 87 % 1011,3 hPa 0,0 l/m 0 min 0 min 0 W/m 22,5 km/h (4 Bft) 97,92 %
20.02.2022 02:38 5,2 C 4,4 C 1,1 C 87 % 1011,2 hPa 0,0 l/m 0 min 0 min 0 W/m 29,0 km/h (5 Bft) 100,00 %
20.02.2022 02:40 5,2 C 4,4 C 1,1 C 87 % 1011,4 hPa 0,0 l/m 0 min 0 min 0 W/m 22,5 km/h (4 Bft) 97,83 %
20.02.2022 02:42 5,2 C 4,4 C 1,1 C 87 % 1011,4 hPa 0,0 l/m 0 min 0 min 0 W/m 19,3 km/h (3 Bft) 94,44 %
20.02.2022 02:44 5,2 C 4,4 C 1,1 C 87 % 1011,3 hPa 0,0 l/m 0 min 0 min 0 W/m 16,1 km/h (3 Bft) 97,87 %
20.02.2022 02:46 5,2 C 4,4 C 1,1 C 87 % 1011,3 hPa 0,0 l/m 0 min 0 min 0 W/m 38,6 km/h (5 Bft) 97,87 %
20.02.2022 02:48 5,2 C 4,4 C 1,1 C 87 % 1011,4 hPa 0,0 l/m 0 min 0 min 0 W/m 25,7 km/h (4 Bft) 95,74 %
20.02.2022 02:50 5,2 C 4,4 C 1,1 C 87 % 1011,6 hPa 0,0 l/m 0 min 0 min 0 W/m 29,0 km/h (5 Bft) 100,00 %
20.02.2022 02:52 5,2 C 4,4 C 1,1 C 87 % 1011,5 hPa 0,0 l/m 0 min 0 min 0 W/m 19,3 km/h (3 Bft) 100,00 %
20.02.2022 02:54 5,2 C 4,4 C 1,1 C 87 % 1011,6 hPa 0,0 l/m 0 min 0 min 0 W/m 19,3 km/h (3 Bft) 97,87 %
20.02.2022 02:56 5,2 C 4,4 C 1,1 C 87 % 1011,6 hPa 0,0 l/m 0 min 0 min 0 W/m 16,1 km/h (3 Bft) 100,00 %
20.02.2022 02:58 5,2 C 4,4 C 1,1 C 87 % 1011,7 hPa 0,0 l/m 0 min 0 min 0 W/m 25,7 km/h (4 Bft) 100,00 %
20.02.2022 03:00 5,1 C 4,4 C 1,1 C 87 % 1011,7 hPa 0,0 l/m 0 min 0 min 0 W/m 22,5 km/h (4 Bft) 100,00 %
20.02.2022 03:02 5,2 C 4,4 C 1,1 C 87 % 1011,9 hPa 0,0 l/m 0 min 0 min 0 W/m 16,1 km/h (3 Bft) 100,00 %
20.02.2022 03:04 5,2 C 4,4 C 1,1 C 87 % 1011,9 hPa 0,0 l/m 0 min 0 min 0 W/m 16,1 km/h (3 Bft) 100,00 %
20.02.2022 03:06 5,2 C 4,4 C 1,1 C 87 % 1012,0 hPa 0,0 l/m 0 min 0 min 0 W/m 19,3 km/h (3 Bft) 100,00 %
20.02.2022 03:08 5,1 C 4,4 C 1,1 C 87 % 1012,0 hPa 0,0 l/m 0 min 0 min 0 W/m 19,3 km/h (3 Bft) 97,87 %
20.02.2022 03:10 5,1 C 4,4 C 1,1 C 87 % 1012,0 hPa 0,0 l/m 0 min 0 min 0 W/m 16,1 km/h (3 Bft) 97,87 %
20.02.2022 03:12 5,1 C 4,4 C 1,1 C 87 % 1012,1 hPa 0,0 l/m 0 min 0 min 0 W/m 16,1 km/h (3 Bft) 95,74 %
20.02.2022 03:14 5,1 C 4,4 C 1,1 C 87 % 1012,0 hPa 0,0 l/m 0 min 0 min 0 W/m 16,1 km/h (3 Bft) 97,87 %
20.02.2022 03:16 5,1 C 4,4 C 1,1 C 88 % 1012,0 hPa 0,0 l/m 0 min 0 min 0 W/m 22,5 km/h (4 Bft) 97,87 %
20.02.2022 03:18 5,1 C 4,4 C 1,1 C 88 % 1012,2 hPa 0,0 l/m 0 min 0 min 0 W/m 19,3 km/h (3 Bft) 97,83 %
20.02.2022 03:20 5,1 C 4,4 C 1,1 C 88 % 1012,1 hPa 0,0 l/m 0 min 0 min 0 W/m 22,5 km/h (4 Bft) 95,74 %
20.02.2022 03:22 5,1 C 4,4 C 1,1 C 88 % 1012,1 hPa 0,0 l/m 0 min 0 min 0 W/m 16,1 km/h (3 Bft) 97,87 %
20.02.2022 03:24 5,1 C 4,4 C 1,1 C 88 % 1012,1 hPa 0,0 l/m 0 min 0 min 0 W/m 22,5 km/h (4 Bft) 97,87 %
20.02.2022 03:26 5,1 C 4,4 C 1,1 C 88 % 1012,1 hPa 0,0 l/m 0 min 0 min 0 W/m 16,1 km/h (3 Bft) 97,87 %
20.02.2022 03:28 5,1 C 4,4 C 1,1 C 88 % 1012,2 hPa 0,0 l/m 0 min 0 min 0 W/m 19,3 km/h (3 Bft) 95,74 %
20.02.2022 03:30 5,1 C 4,4 C 1,1 C 88 % 1012,1 hPa 0,0 l/m 0 min 0 min 0 W/m 12,9 km/h (3 Bft) 97,83 %
20.02.2022 03:32 5,1 C 4,4 C 1,1 C 88 % 1012,1 hPa 0,0 l/m 0 min 0 min 0 W/m 22,5 km/h (4 Bft) 97,87 %
20.02.2022 03:34 5,1 C 4,4 C 1,1 C 88 % 1012,1 hPa 0,0 l/m 0 min 0 min 0 W/m 19,3 km/h (3 Bft) 97,87 %
20.02.2022 03:36 5,1 C 4,4 C 1,1 C 88 % 1012,1 hPa 0,0 l/m 0 min 0 min 0 W/m 12,9 km/h (3 Bft) 95,74 %
20.02.2022 03:38 5,1 C 4,4 C 1,1 C 87 % 1012,2 hPa 0,0 l/m 0 min 0 min 0 W/m 22,5 km/h (4 Bft) 98,11 %
20.02.2022 03:40 5,1 C 4,4 C 1,1 C 87 % 1012,1 hPa 0,0 l/m 0 min 0 min 0 W/m 22,5 km/h (4 Bft) 95,74 %
20.02.2022 03:42 5,1 C 4,4 C 1,1 C 87 % 1012,3 hPa 0,0 l/m 0 min 0 min 0 W/m 19,3 km/h (3 Bft) 95,74 %
20.02.2022 03:44 5,1 C 4,4 C 1,1 C 87 % 1012,3 hPa 0,0 l/m 0 min 0 min 0 W/m 16,1 km/h (3 Bft) 93,62 %
20.02.2022 03:46 5,1 C 4,4 C 1,1 C 88 % 1012,4 hPa 0,0 l/m 0 min 0 min 0 W/m 16,1 km/h (3 Bft) 97,87 %
20.02.2022 03:48 5,1 C 4,4 C 1,1 C 88 % 1012,4 hPa 0,0 l/m 0 min 0 min 0 W/m 12,9 km/h (3 Bft) 97,87 %
20.02.2022 03:50 5,1 C 4,4 C 1,1 C 88 % 1012,3 hPa 0,0 l/m 0 min 0 min 0 W/m 25,7 km/h (4 Bft) 95,65 %
20.02.2022 03:52 5,1 C 4,4 C 1,1 C 88 % 1012,3 hPa 0,0 l/m 0 min 0 min 0 W/m 29,0 km/h (5 Bft) 93,62 %
20.02.2022 03:54 5,1 C 4,4 C 1,1 C 88 % 1012,3 hPa 0,0 l/m 0 min 0 min 0 W/m 16,1 km/h (3 Bft) 95,74 %
20.02.2022 03:56 5,1 C 4,4 C 1,1 C 88 % 1012,3 hPa 0,0 l/m 0 min 0 min 0 W/m 12,9 km/h (3 Bft) 95,74 %
20.02.2022 03:58 5,1 C 4,4 C 1,1 C 88 % 1012,4 hPa 0,0 l/m 0 min 0 min 0 W/m 16,1 km/h (3 Bft) 95,74 %
20.02.2022 04:00 5,1 C 4,4 C 1,1 C 88 % 1012,3 hPa 0,0 l/m 0 min 0 min 0 W/m 16,1 km/h (3 Bft) 95,74 %
20.02.2022 04:02 5,0 C 4,4 C 1,1 C 88 % 1012,4 hPa 0,0 l/m 0 min 0 min 0 W/m 38,6 km/h (5 Bft) 88,89 %
20.02.2022 04:04 5,0 C 4,4 C 1,1 C 87 % 1012,4 hPa 0,0 l/m 0 min 0 min 0 W/m 12,9 km/h (3 Bft) 100,00 %
20.02.2022 04:06 5,0 C 4,4 C 1,1 C 87 % 1012,5 hPa 0,0 l/m 0 min 0 min 0 W/m 22,5 km/h (4 Bft) 95,74 %
20.02.2022 04:08 5,0 C 4,4 C 1,1 C 87 % 1012,5 hPa 0,0 l/m 0 min 0 min 0 W/m 16,1 km/h (3 Bft) 97,87 %
20.02.2022 04:10 5,0 C 4,4 C 1,1 C 87 % 1012,5 hPa 0,0 l/m 0 min 0 min 0 W/m 12,9 km/h (3 Bft) 100,00 %
20.02.2022 04:12 5,0 C 4,4 C 1,1 C 87 % 1012,5 hPa 0,0 l/m 0 min 0 min 0 W/m 19,3 km/h (3 Bft) 93,62 %
20.02.2022 04:14 5,0 C 4,4 C 1,1 C 87 % 1012,6 hPa 0,0 l/m 0 min 0 min 0 W/m 12,9 km/h (3 Bft) 97,83 %
20.02.2022 04:16 5,0 C 4,4 C 1,1 C 87 % 1012,6 hPa 0,0 l/m 0 min 0 min 0 W/m 9,7 km/h (2 Bft) 97,87 %
20.02.2022 04:18 5,0 C 4,4 C 1,1 C 87 % 1012,6 hPa 0,0 l/m 0 min 0 min 0 W/m 6,4 km/h (2 Bft) 97,87 %
20.02.2022 04:20 5,0 C 4,4 C 1,1 C 88 % 1012,7 hPa 0,0 l/m 0 min 0 min 0 W/m 12,9 km/h (3 Bft) 95,74 %
20.02.2022 04:22 5,0 C 4,4 C 1,1 C 88 % 1012,6 hPa 0,0 l/m 0 min 0 min 0 W/m 9,7 km/h (2 Bft) 97,87 %
20.02.2022 04:24 5,0 C 4,4 C 1,1 C 88 % 1012,6 hPa 0,0 l/m 0 min 0 min 0 W/m 12,9 km/h (3 Bft) 95,74 %
20.02.2022 04:26 5,0 C 4,4 C 1,1 C 88 % 1012,7 hPa 0,0 l/m 0 min 0 min 0 W/m 12,9 km/h (3 Bft) 100,00 %
20.02.2022 04:28 5,0 C 4,4 C 1,1 C 88 % 1012,7 hPa 0,0 l/m 0 min 0 min 0 W/m 6,4 km/h (2 Bft) 100,00 %
20.02.2022 04:30 5,0 C 4,4 C 1,1 C 88 % 1012,6 hPa 0,0 l/m 0 min 0 min 0 W/m 12,9 km/h (3 Bft) 100,00 %
20.02.2022 04:32 4,9 C 4,4 C 1,1 C 88 % 1012,6 hPa 0,0 l/m 0 min 0 min 0 W/m 19,3 km/h (3 Bft) 97,87 %
20.02.2022 04:34 4,9 C 3,9 C 1,1 C 88 % 1012,7 hPa 0,0 l/m 0 min 0 min 0 W/m 12,9 km/h (3 Bft) 100,00 %
20.02.2022 04:36 4,9 C 3,9 C 1,1 C 88 % 1012,7 hPa 0,0 l/m 0 min 0 min 0 W/m 12,9 km/h (3 Bft) 97,83 %
20.02.2022 04:38 4,8 C 3,9 C 1,1 C 88 % 1012,8 hPa 0,0 l/m 0 min 0 min 0 W/m 12,9 km/h (3 Bft) 97,87 %
20.02.2022 04:40 4,8 C 3,9 C 1,1 C 88 % 1012,9 hPa 0,0 l/m 0 min 0 min 0 W/m 12,9 km/h (3 Bft) 97,87 %
20.02.2022 04:42 4,8 C 3,9 C 1,1 C 88 % 1012,9 hPa 0,0 l/m 0 min 0 min 0 W/m 12,9 km/h (3 Bft) 97,92 %
20.02.2022 04:44 4,7 C 3,9 C 1,1 C 88 % 1012,9 hPa 0,0 l/m 0 min 0 min 0 W/m 12,9 km/h (3 Bft) 97,87 %
20.02.2022 04:46 4,7 C 3,9 C 1,1 C 88 % 1012,9 hPa 0,0 l/m 0 min 0 min 0 W/m 6,4 km/h (2 Bft) 97,87 %
20.02.2022 04:48 4,7 C 3,9 C 1,1 C 88 % 1012,9 hPa 0,0 l/m 0 min 0 min 0 W/m 6,4 km/h (2 Bft) 97,83 %
20.02.2022 04:50 4,7 C 3,9 C 1,1 C 88 % 1012,9 hPa 0,0 l/m 0 min 0 min 0 W/m 9,7 km/h (2 Bft) 97,87 %
20.02.2022 04:52 4,6 C 3,9 C 1,1 C 88 % 1012,9 hPa 0,0 l/m 0 min 0 min 0 W/m 6,4 km/h (2 Bft) 95,74 %
20.02.2022 04:54 4,6 C 3,9 C 0,6 C 88 % 1012,9 hPa 0,0 l/m 0 min 0 min 0 W/m 6,4 km/h (2 Bft) 97,87 %
20.02.2022 04:56 4,6 C 3,9 C 0,6 C 88 % 1012,9 hPa 0,0 l/m 0 min 0 min 0 W/m 9,7 km/h (2 Bft) 97,87 %
20.02.2022 04:58 4,5 C 3,3 C 0,6 C 88 % 1012,8 hPa 0,0 l/m 0 min 0 min 0 W/m 6,4 km/h (2 Bft) 97,87 %
20.02.2022 05:00 4,5 C 3,3 C 0,6 C 88 % 1012,8 hPa 0,0 l/m 0 min 0 min 0 W/m 6,4 km/h (2 Bft) 95,65 %
20.02.2022 05:02 4,4 C 3,3 C 0,6 C 88 % 1012,7 hPa 0,0 l/m 0 min 0 min 0 W/m 6,4 km/h (2 Bft) 96,00 %
20.02.2022 05:04 4,4 C 3,3 C 0,6 C 88 % 1012,7 hPa 0,0 l/m 0 min 0 min 0 W/m 6,4 km/h (2 Bft) 100,00 %
20.02.2022 05:06 4,3 C 3,3 C 0,6 C 88 % 1012,7 hPa 0,0 l/m 0 min 0 min 0 W/m 3,2 km/h (1 Bft) 96,00 %
20.02.2022 05:08 4,3 C 3,3 C 0,6 C 88 % 1012,7 hPa 0,0 l/m 0 min 0 min 0 W/m 6,4 km/h (2 Bft) 97,87 %
20.02.2022 05:10 4,3 C 3,3 C 0,6 C 88 % 1012,6 hPa 0,0 l/m 0 min 0 min 0 W/m 6,4 km/h (2 Bft) 97,87 %
20.02.2022 05:12 4,3 C 3,3 C 0,6 C 88 % 1012,5 hPa 0,0 l/m 0 min 0 min 0 W/m 12,9 km/h (3 Bft) 97,87 %
20.02.2022 05:14 4,3 C 3,3 C 0,6 C 88 % 1012,5 hPa 0,0 l/m 0 min 0 min 0 W/m 6,4 km/h (2 Bft) 97,87 %
20.02.2022 05:16 4,2 C 3,3 C 0,6 C 88 % 1012,5 hPa 0,0 l/m 0 min 0 min 0 W/m 16,1 km/h (3 Bft) 97,67 %
20.02.2022 05:18 4,2 C 3,3 C 0,6 C 88 % 1012,5 hPa 0,0 l/m 0 min 0 min 0 W/m 6,4 km/h (2 Bft) 100,00 %
20.02.2022 05:20 4,2 C 3,3 C 0,6 C 88 % 1012,4 hPa 0,0 l/m 0 min 0 min 0 W/m 6,4 km/h (2 Bft) 100,00 %
20.02.2022 05:22 4,2 C 3,3 C 0,6 C 88 % 1012,4 hPa 0,0 l/m 0 min 0 min 0 W/m 3,2 km/h (1 Bft) 100,00 %
20.02.2022 05:24 4,1 C 3,3 C 0,6 C 88 % 1012,5 hPa 0,0 l/m 0 min 0 min 0 W/m 3,2 km/h (1 Bft) 100,00 %
20.02.2022 05:26 4,1 C 2,8 C 0,6 C 88 % 1012,5 hPa 0,0 l/m 0 min 0 min 0 W/m 3,2 km/h (1 Bft) 100,00 %
20.02.2022 05:28 4,1 C 2,8 C 0,6 C 88 % 1012,5 hPa 0,0 l/m 0 min 0 min 0 W/m 6,4 km/h (2 Bft) 98,00 %
20.02.2022 05:30 4,1 C 2,8 C 0,6 C 88 % 1012,5 hPa 0,0 l/m 0 min 0 min 0 W/m 3,2 km/h (1 Bft) 100,00 %
20.02.2022 05:32 4,0 C 2,8 C 0,6 C 88 % 1012,4 hPa 0,0 l/m 0 min 0 min 0 W/m 6,4 km/h (2 Bft) 100,00 %
20.02.2022 05:34 4,0 C 2,8 C 0,6 C 88 % 1012,4 hPa 0,0 l/m 0 min 0 min 0 W/m 6,4 km/h (2 Bft) 100,00 %
20.02.2022 05:36 3,9 C 2,8 C 0,6 C 88 % 1012,4 hPa 0,0 l/m 0 min 0 min 0 W/m 6,4 km/h (2 Bft) 100,00 %
20.02.2022 05:38 3,9 C 2,8 C 0,6 C 88 % 1012,5 hPa 0,0 l/m 0 min 0 min 0 W/m 6,4 km/h (2 Bft) 100,00 %
20.02.2022 05:40 3,9 C 2,8 C 0,6 C 88 % 1012,5 hPa 0,0 l/m 0 min 0 min 0 W/m 6,4 km/h (2 Bft) 100,00 %
20.02.2022 05:42 3,9 C 3,3 C 0,6 C 89 % 1012,4 hPa 0,0 l/m 0 min 0 min 0 W/m 9,7 km/h (2 Bft) 100,00 %
20.02.2022 05:44 3,9 C 3,3 C 0,6 C 89 % 1012,4 hPa 0,0 l/m 0 min 0 min 0 W/m 6,4 km/h (2 Bft) 100,00 %
20.02.2022 05:46 3,9 C 3,3 C 0,6 C 89 % 1012,4 hPa 0,0 l/m 0 min 0 min 0 W/m 3,2 km/h (1 Bft) 100,00 %
20.02.2022 05:48 3,9 C 3,3 C 0,6 C 89 % 1012,3 hPa 0,0 l/m 0 min 0 min 0 W/m 3,2 km/h (1 Bft) 95,74 %
20.02.2022 05:50 3,9 C 3,3 C 0,6 C 89 % 1012,2 hPa 0,0 l/m 0 min 0 min 0 W/m 3,2 km/h (1 Bft) 97,87 %
20.02.2022 05:52 3,8 C 3,3 C 0,6 C 89 % 1012,2 hPa 0,0 l/m 0 min 0 min 0 W/m 3,2 km/h (1 Bft) 97,37 %
20.02.2022 05:54 3,8 C 3,3 C 0,6 C 89 % 1012,2 hPa 0,0 l/m 0 min 0 min 0 W/m 12,9 km/h (3 Bft) 97,87 %
20.02.2022 05:56 3,8 C 3,3 C 0,6 C 89 % 1012,2 hPa 0,0 l/m 0 min 0 min 0 W/m 6,4 km/h (2 Bft) 98,00 %
20.02.2022 05:58 3,8 C 3,3 C 0,6 C 89 % 1012,1 hPa 0,0 l/m 0 min 0 min 0 W/m 6,4 km/h (2 Bft) 97,96 %
20.02.2022 06:00 3,8 C 3,3 C 0,6 C 89 % 1012,1 hPa 0,0 l/m 0 min 0 min 0 W/m 3,2 km/h (1 Bft) 97,37 %
20.02.2022 06:02 3,8 C 3,3 C 0,6 C 89 % 1012,0 hPa 0,0 l/m 0 min 0 min 0 W/m 6,4 km/h (2 Bft) 96,00 %
20.02.2022 06:04 3,8 C 3,3 C 0,6 C 89 % 1012,0 hPa 0,0 l/m 0 min 0 min 0 W/m 6,4 km/h (2 Bft) 97,87 %
20.02.2022 06:08 3,8 C 3,3 C 0,6 C 89 % 1011,9 hPa 0,0 l/m 0 min 0 min 0 W/m 6,4 km/h (2 Bft) 97,94 %
20.02.2022 06:10 3,8 C 3,3 C 0,6 C 89 % 1011,9 hPa 0,0 l/m 0 min 0 min 0 W/m 12,9 km/h (3 Bft) 97,96 %
20.02.2022 06:12 3,8 C 3,3 C 0,6 C 89 % 1011,9 hPa 0,0 l/m 0 min 0 min 0 W/m 3,2 km/h (1 Bft) 97,14 %
20.02.2022 06:14 3,8 C 3,3 C 0,6 C 89 % 1011,8 hPa 0,0 l/m 0 min 0 min 0 W/m 6,4 km/h (2 Bft) 95,74 %
20.02.2022 06:16 3,8 C 3,3 C 0,6 C 89 % 1011,8 hPa 0,0 l/m 0 min 0 min 0 W/m 6,4 km/h (2 Bft) 95,74 %
20.02.2022 06:18 3,8 C 3,3 C 0,6 C 90 % 1011,8 hPa 0,0 l/m 0 min 0 min 0 W/m 3,2 km/h (1 Bft) 96,43 %
20.02.2022 06:20 3,8 C 3,3 C 0,6 C 90 % 1011,6 hPa 0,0 l/m 0 min 0 min 0 W/m 6,4 km/h (2 Bft) 95,74 %
20.02.2022 06:22 3,8 C 3,3 C 0,6 C 90 % 1011,6 hPa 0,0 l/m 0 min 0 min 0 W/m 6,4 km/h (2 Bft) 95,92 %
20.02.2022 06:24 3,8 C 3,3 C 0,6 C 90 % 1011,5 hPa 0,0 l/m 0 min 0 min 0 W/m 3,2 km/h (1 Bft) 97,14 %
20.02.2022 06:26 3,8 C 3,3 C 0,6 C 90 % 1011,5 hPa 0,0 l/m 0 min 0 min 0 W/m 6,4 km/h (2 Bft) 97,87 %
20.02.2022 06:28 3,8 C 3,3 C 0,6 C 90 % 1011,5 hPa 0,0 l/m 0 min 0 min 0 W/m 12,9 km/h (3 Bft) 93,48 %
20.02.2022 06:30 3,8 C 3,3 C 0,6 C 90 % 1011,5 hPa 0,0 l/m 0 min 0 min 0 W/m 9,7 km/h (2 Bft) 96,00 %
20.02.2022 06:32 3,8 C 3,3 C 0,6 C 90 % 1011,6 hPa 0,0 l/m 0 min 0 min 0 W/m 16,1 km/h (3 Bft) 97,14 %
20.02.2022 06:34 3,8 C 3,3 C 0,6 C 90 % 1011,6 hPa 0,0 l/m 0 min 0 min 0 W/m 6,4 km/h (2 Bft) 97,87 %
20.02.2022 06:36 3,8 C 3,3 C 0,6 C 90 % 1011,6 hPa 0,0 l/m 0 min 0 min 0 W/m 6,4 km/h (2 Bft) 96,36 %
20.02.2022 06:38 3,8 C 3,3 C 0,6 C 90 % 1011,5 hPa 0,0 l/m 0 min 0 min 0 W/m 6,4 km/h (2 Bft) 94,00 %
20.02.2022 06:40 3,8 C 3,3 C 0,6 C 90 % 1011,5 hPa 0,0 l/m 0 min 0 min 0 W/m 6,4 km/h (2 Bft) 97,87 %
20.02.2022 06:42 3,8 C 3,3 C 0,6 C 90 % 1011,4 hPa 0,0 l/m 0 min 0 min 0 W/m 12,9 km/h (3 Bft) 94,29 %
20.02.2022 06:44 3,8 C 3,3 C 0,6 C 91 % 1011,3 hPa 0,0 l/m 0 min 0 min 0 W/m 9,7 km/h (2 Bft) 98,18 %
20.02.2022 06:46 3,8 C 3,3 C 0,6 C 91 % 1011,2 hPa 0,0 l/m 0 min 0 min 0 W/m 16,1 km/h (3 Bft) 98,00 %
20.02.2022 06:48 3,8 C 3,3 C 0,6 C 91 % 1011,2 hPa 0,0 l/m 0 min 2 min 0 W/m 16,1 km/h (3 Bft) 97,14 %
20.02.2022 06:50 3,8 C 3,3 C 0,6 C 91 % 1011,2 hPa 0,0 l/m 0 min 2 min 0 W/m 19,3 km/h (3 Bft) 97,87 %
20.02.2022 06:52 3,9 C 3,3 C 0,0 C 91 % 1011,1 hPa 0,0 l/m 0 min 2 min 0 W/m 12,9 km/h (3 Bft) 94,64 %
20.02.2022 06:54 3,9 C 3,3 C 0,0 C 91 % 1011,1 hPa 0,0 l/m 0 min 2 min 0 W/m 12,9 km/h (3 Bft) 96,00 %
20.02.2022 06:56 3,9 C 3,3 C 0,0 C 91 % 1011,1 hPa 0,0 l/m 0 min 2 min 0 W/m 12,9 km/h (3 Bft) 97,83 %
20.02.2022 06:58 3,9 C 3,3 C 0,0 C 92 % 1011,1 hPa 0,0 l/m 0 min 2 min 0 W/m 16,1 km/h (3 Bft) 94,74 %
20.02.2022 07:00 3,9 C 3,3 C 0,0 C 92 % 1011,0 hPa 0,0 l/m 0 min 2 min 0 W/m 16,1 km/h (3 Bft) 95,74 %
20.02.2022 07:02 3,9 C 3,3 C 0,0 C 92 % 1011,1 hPa 0,0 l/m 0 min 2 min 0 W/m 12,9 km/h (3 Bft) 96,43 %
20.02.2022 07:04 3,9 C 3,3 C 0,0 C 92 % 1011,0 hPa 0,0 l/m 0 min 2 min 0 W/m 16,1 km/h (3 Bft) 97,87 %
20.02.2022 07:06 4,0 C 3,3 C 0,6 C 92 % 1011,0 hPa 0,2 l/m 0 min 2 min 0 W/m 19,3 km/h (3 Bft) 97,96 %
20.02.2022 07:08 4,0 C 3,3 C 0,6 C 92 % 1010,9 hPa 0,0 l/m 0 min 2 min 0 W/m 12,9 km/h (3 Bft) 95,74 %
20.02.2022 07:10 4,1 C 3,3 C 0,6 C 92 % 1010,8 hPa 0,0 l/m 0 min 2 min 0 W/m 12,9 km/h (3 Bft) 95,74 %
20.02.2022 07:12 4,1 C 3,3 C 0,6 C 92 % 1010,8 hPa 0,0 l/m 0 min 2 min 0 W/m 12,9 km/h (3 Bft) 94,74 %
20.02.2022 07:14 4,1 C 3,3 C 0,6 C 92 % 1010,8 hPa 0,0 l/m 0 min 2 min 0 W/m 12,9 km/h (3 Bft) 97,87 %
20.02.2022 07:16 4,1 C 3,3 C 0,6 C 93 % 1010,7 hPa 0,0 l/m 0 min 2 min 0 W/m 12,9 km/h (3 Bft) 98,00 %
20.02.2022 07:18 4,1 C 3,3 C 0,6 C 93 % 1010,6 hPa 0,0 l/m 0 min 2 min 0 W/m 6,4 km/h (2 Bft) 93,62 %
20.02.2022 07:20 4,2 C 3,3 C 0,6 C 93 % 1010,5 hPa 0,2 l/m 0 min 2 min 0 W/m 6,4 km/h (2 Bft) 95,35 %
20.02.2022 07:22 4,2 C 3,3 C 0,6 C 93 % 1010,5 hPa 0,0 l/m 0 min 2 min 0 W/m 16,1 km/h (3 Bft) 98,00 %
20.02.2022 07:24 4,2 C 3,3 C 0,6 C 93 % 1010,5 hPa 0,0 l/m 0 min 2 min 0 W/m 12,9 km/h (3 Bft) 97,87 %
20.02.2022 07:26 4,3 C 3,3 C 0,6 C 93 % 1010,5 hPa 0,2 l/m 0 min 2 min 0 W/m 12,9 km/h (3 Bft) 97,73 %
20.02.2022 07:28 4,3 C 3,9 C 0,6 C 93 % 1010,5 hPa 0,0 l/m 0 min 2 min 0 W/m 16,1 km/h (3 Bft) 98,00 %
20.02.2022 07:30 4,3 C 3,9 C 0,6 C 93 % 1010,4 hPa 0,0 l/m 0 min 2 min 0 W/m 12,9 km/h (3 Bft) 97,83 %
20.02.2022 07:32 4,4 C 3,9 C 0,6 C 94 % 1010,3 hPa 0,0 l/m 0 min 2 min 0 W/m 12,9 km/h (3 Bft) 95,45 %
20.02.2022 07:34 4,4 C 3,9 C 0,6 C 94 % 1010,3 hPa 0,0 l/m 0 min 2 min 0 W/m 12,9 km/h (3 Bft) 98,00 %
20.02.2022 07:36 4,4 C 3,9 C 0,6 C 94 % 1010,2 hPa 0,0 l/m 0 min 2 min 0 W/m 16,1 km/h (3 Bft) 97,87 %
20.02.2022 07:38 4,5 C 3,9 C 1,1 C 94 % 1010,1 hPa 0,2 l/m 0 min 2 min 0 W/m 12,9 km/h (3 Bft) 97,87 %
20.02.2022 07:40 4,6 C 3,9 C 1,1 C 94 % 1010,1 hPa 0,0 l/m 0 min 2 min 0 W/m 9,7 km/h (2 Bft) 100,00 %
20.02.2022 07:42 4,6 C 3,9 C 1,1 C 94 % 1010,0 hPa 0,0 l/m 0 min 2 min 0 W/m 12,9 km/h (3 Bft) 100,00 %
20.02.2022 07:44 4,6 C 3,9 C 1,1 C 94 % 1009,8 hPa 0,0 l/m 0 min 2 min 0 W/m 12,9 km/h (3 Bft) 97,87 %
20.02.2022 07:46 4,7 C 3,9 C 1,1 C 95 % 1009,7 hPa 0,2 l/m 0 min 2 min 0 W/m 12,9 km/h (3 Bft) 97,73 %
20.02.2022 07:48 4,7 C 3,9 C 1,1 C 95 % 1009,8 hPa 0,0 l/m 0 min 2 min 0 W/m 12,9 km/h (3 Bft) 98,00 %
20.02.2022 07:50 4,8 C 4,4 C 1,1 C 95 % 1009,8 hPa 0,0 l/m 0 min 2 min 0 W/m 12,9 km/h (3 Bft) 95,74 %
20.02.2022 07:52 4,8 C 4,4 C 1,1 C 95 % 1009,8 hPa 0,0 l/m 0 min 2 min 0 W/m 16,1 km/h (3 Bft) 97,87 %
20.02.2022 07:54 4,9 C 4,4 C 1,1 C 95 % 1009,7 hPa 0,0 l/m 0 min 0 min 0 W/m 16,1 km/h (3 Bft) 97,73 %
20.02.2022 07:56 4,9 C 4,4 C 1,1 C 95 % 1009,6 hPa 0,2 l/m 0 min 2 min 0 W/m 16,1 km/h (3 Bft) 97,96 %
20.02.2022 07:58 5,1 C 4,4 C 1,7 C 95 % 1009,6 hPa 0,0 l/m 0 min 2 min 0 W/m 12,9 km/h (3 Bft) 98,00 %
20.02.2022 08:00 5,1 C 4,4 C 1,7 C 95 % 1009,6 hPa 0,0 l/m 0 min 2 min 0 W/m 12,9 km/h (3 Bft) 97,37 %
20.02.2022 08:02 5,2 C 4,4 C 1,7 C 95 % 1009,6 hPa 0,2 l/m 0 min 2 min 0 W/m 12,9 km/h (3 Bft) 98,00 %
20.02.2022 08:04 5,2 C 4,4 C 1,7 C 95 % 1009,6 hPa 0,0 l/m 0 min 2 min 0 W/m 19,3 km/h (3 Bft) 97,87 %
20.02.2022 08:06 5,3 C 5,0 C 1,7 C 95 % 1009,5 hPa 0,0 l/m 0 min 2 min 0 W/m 12,9 km/h (3 Bft) 95,92 %
20.02.2022 08:08 5,4 C 5,0 C 1,7 C 96 % 1009,4 hPa 0,0 l/m 0 min 2 min 0 W/m 16,1 km/h (3 Bft) 96,00 %
20.02.2022 08:10 5,6 C 5,0 C 2,2 C 96 % 1009,5 hPa 0,0 l/m 0 min 2 min 1 W/m 25,7 km/h (4 Bft) 100,00 %
20.02.2022 08:12 5,7 C 5,0 C 2,2 C 96 % 1009,4 hPa 0,0 l/m 0 min 2 min 5 W/m 32,2 km/h (5 Bft) 95,74 %
20.02.2022 08:14 5,8 C 5,6 C 2,2 C 96 % 1009,5 hPa 0,0 l/m 0 min 2 min 5 W/m 25,7 km/h (4 Bft) 100,00 %
20.02.2022 08:16 5,9 C 5,6 C 2,2 C 96 % 1009,6 hPa 0,2 l/m 0 min 0 min 5 W/m 25,7 km/h (4 Bft) 100,00 %
20.02.2022 08:18 6,0 C 5,6 C 2,2 C 96 % 1009,5 hPa 0,0 l/m 0 min 2 min 5 W/m 19,3 km/h (3 Bft) 100,00 %
20.02.2022 08:20 6,1 C 5,6 C 2,2 C 96 % 1009,5 hPa 0,0 l/m 0 min 2 min 5 W/m 16,1 km/h (3 Bft) 100,00 %
20.02.2022 08:22 6,2 C 5,6 C 2,8 C 96 % 1009,5 hPa 0,0 l/m 0 min 2 min 5 W/m 22,5 km/h (4 Bft) 97,87 %
20.02.2022 08:24 6,3 C 5,6 C 2,8 C 96 % 1009,7 hPa 0,0 l/m 0 min 0 min 6 W/m 25,7 km/h (4 Bft) 100,00 %
20.02.2022 08:26 6,5 C 6,1 C 2,8 C 96 % 1009,5 hPa 0,0 l/m 0 min 2 min 6 W/m 25,7 km/h (4 Bft) 100,00 %
20.02.2022 08:28 6,5 C 6,1 C 2,8 C 96 % 1009,6 hPa 0,2 l/m 0 min 2 min 5 W/m 32,2 km/h (5 Bft) 100,00 %
20.02.2022 08:30 6,6 C 6,1 C 2,8 C 97 % 1009,6 hPa 0,0 l/m 0 min 2 min 7 W/m 32,2 km/h (5 Bft) 100,00 %
20.02.2022 08:32 6,7 C 6,1 C 2,8 C 97 % 1009,5 hPa 0,0 l/m 0 min 2 min 7 W/m 29,0 km/h (5 Bft) 100,00 %
20.02.2022 08:34 6,8 C 6,1 C 2,8 C 97 % 1009,5 hPa 0,0 l/m 0 min 2 min 7 W/m 29,0 km/h (5 Bft) 100,00 %
20.02.2022 08:36 6,9 C 6,1 C 2,8 C 97 % 1009,6 hPa 0,0 l/m 0 min 2 min 7 W/m 41,8 km/h (6 Bft) 100,00 %
20.02.2022 08:38 7,0 C 6,1 C 3,3 C 97 % 1009,5 hPa 0,0 l/m 0 min 2 min 7 W/m 25,7 km/h (4 Bft) 100,00 %
20.02.2022 08:40 7,1 C 6,1 C 3,3 C 97 % 1009,7 hPa 0,0 l/m 0 min 2 min 8 W/m 32,2 km/h (5 Bft) 100,00 %
20.02.2022 08:42 7,1 C 6,1 C 3,3 C 97 % 1009,7 hPa 0,2 l/m 0 min 2 min 9 W/m 19,3 km/h (3 Bft) 100,00 %
20.02.2022 08:44 7,2 C 6,1 C 3,3 C 97 % 1009,7 hPa 0,0 l/m 0 min 2 min 9 W/m 22,5 km/h (4 Bft) 55,56 %
20.02.2022 08:46 7,2 C 6,1 C 3,3 C 97 % 1009,6 hPa 0,0 l/m 0 min 2 min 8 W/m 29,0 km/h (5 Bft) 100,00 %
20.02.2022 08:48 7,2 C 6,1 C 3,3 C 96 % 1009,5 hPa 0,0 l/m 0 min 2 min 9 W/m 22,5 km/h (4 Bft) 100,00 %
20.02.2022 08:50 7,3 C 6,1 C 3,3 C 97 % 1009,5 hPa 0,2 l/m 0 min 2 min 11 W/m 32,2 km/h (5 Bft) 100,00 %
20.02.2022 08:52 7,3 C 6,7 C 3,3 C 97 % 1009,8 hPa 0,0 l/m 0 min 2 min 12 W/m 32,2 km/h (5 Bft) 100,00 %
20.02.2022 08:54 7,4 C 6,7 C 3,3 C 97 % 1009,5 hPa 0,0 l/m 0 min 2 min 14 W/m 38,6 km/h (5 Bft) 100,00 %
20.02.2022 08:56 7,4 C 6,7 C 3,3 C 96 % 1009,3 hPa 0,0 l/m 0 min 2 min 13 W/m 41,8 km/h (6 Bft) 100,00 %
20.02.2022 08:58 7,5 C 6,7 C 3,3 C 96 % 1009,7 hPa 0,0 l/m 0 min 2 min 15 W/m 35,4 km/h (5 Bft) 100,00 %
20.02.2022 09:00 7,6 C 6,7 C 3,3 C 96 % 1009,4 hPa 0,2 l/m 0 min 2 min 16 W/m 32,2 km/h (5 Bft) 100,00 %
20.02.2022 09:02 7,6 C 6,7 C 3,3 C 96 % 1009,4 hPa 0,0 l/m 0 min 2 min 18 W/m 35,4 km/h (5 Bft) 100,00 %
20.02.2022 09:04 7,6 C 6,7 C 3,3 C 96 % 1009,4 hPa 0,0 l/m 0 min 2 min 17 W/m 41,8 km/h (6 Bft) 100,00 %
20.02.2022 09:06 7,7 C 6,7 C 3,3 C 96 % 1009,4 hPa 0,0 l/m 0 min 2 min 14 W/m 54,7 km/h (7 Bft) 100,00 %
20.02.2022 09:08 7,7 C 6,7 C 3,3 C 96 % 1009,4 hPa 0,0 l/m 0 min 2 min 18 W/m 29,0 km/h (5 Bft) 100,00 %
20.02.2022 09:10 7,7 C 6,7 C 3,3 C 96 % 1009,3 hPa 0,0 l/m 0 min 2 min 20 W/m 29,0 km/h (5 Bft) 95,74 %
20.02.2022 09:12 7,7 C 6,7 C 3,9 C 96 % 1009,4 hPa 0,0 l/m 0 min 2 min 19 W/m 35,4 km/h (5 Bft) 97,87 %
20.02.2022 09:14 7,7 C 6,7 C 3,9 C 96 % 1009,6 hPa 0,2 l/m 0 min 2 min 22 W/m 41,8 km/h (6 Bft) 95,74 %
20.02.2022 09:16 7,7 C 6,7 C 3,9 C 96 % 1009,3 hPa 0,0 l/m 0 min 2 min 24 W/m 25,7 km/h (4 Bft) 97,56 %
20.02.2022 09:18 7,8 C 6,7 C 3,9 C 96 % 1009,4 hPa 0,0 l/m 0 min 2 min 27 W/m 41,8 km/h (6 Bft) 96,15 %
20.02.2022 09:20 7,8 C 6,7 C 3,9 C 96 % 1009,3 hPa 0,0 l/m 0 min 2 min 26 W/m 32,2 km/h (5 Bft) 97,87 %
20.02.2022 09:22 7,8 C 6,7 C 3,9 C 96 % 1009,2 hPa 0,0 l/m 0 min 2 min 35 W/m 25,7 km/h (4 Bft) 97,87 %
20.02.2022 09:24 7,8 C 6,7 C 3,9 C 96 % 1009,1 hPa 0,0 l/m 0 min 2 min 39 W/m 35,4 km/h (5 Bft) 97,87 %
20.02.2022 09:26 7,8 C 7,2 C 3,9 C 96 % 1009,2 hPa 0,0 l/m 0 min 2 min 43 W/m 45,1 km/h (6 Bft) 97,87 %
20.02.2022 09:28 7,8 C 7,2 C 3,9 C 96 % 1009,2 hPa 0,0 l/m 0 min 2 min 41 W/m 25,7 km/h (4 Bft) 97,87 %
20.02.2022 09:30 7,9 C 7,2 C 3,9 C 96 % 1009,0 hPa 0,0 l/m 0 min 2 min 39 W/m 38,6 km/h (5 Bft) 97,87 %
20.02.2022 09:32 7,9 C 7,2 C 3,9 C 96 % 1009,1 hPa 0,2 l/m 0 min 2 min 40 W/m 25,7 km/h (4 Bft) 93,75 %
20.02.2022 09:34 7,9 C 7,2 C 3,9 C 96 % 1009,1 hPa 0,0 l/m 0 min 2 min 39 W/m 25,7 km/h (4 Bft) 93,62 %
20.02.2022 09:36 7,9 C 7,2 C 3,9 C 96 % 1009,2 hPa 0,0 l/m 0 min 2 min 34 W/m 35,4 km/h (5 Bft) 95,74 %
20.02.2022 09:38 7,9 C 7,2 C 3,9 C 96 % 1009,1 hPa 0,0 l/m 0 min 2 min 40 W/m 32,2 km/h (5 Bft) 91,49 %
20.02.2022 09:40 7,9 C 7,2 C 3,9 C 96 % 1009,1 hPa 0,0 l/m 0 min 2 min 40 W/m 22,5 km/h (4 Bft) 95,65 %
20.02.2022 09:42 8,0 C 7,2 C 4,4 C 96 % 1009,1 hPa 0,0 l/m 0 min 2 min 47 W/m 32,2 km/h (5 Bft) 93,62 %
20.02.2022 09:44 8,0 C 7,2 C 4,4 C 96 % 1008,9 hPa 0,0 l/m 0 min 2 min 48 W/m 45,1 km/h (6 Bft) 93,62 %
20.02.2022 09:46 8,1 C 7,2 C 4,4 C 96 % 1009,0 hPa 0,0 l/m 0 min 2 min 42 W/m 38,6 km/h (5 Bft) 93,62 %
20.02.2022 09:48 8,1 C 7,2 C 4,4 C 96 % 1009,0 hPa 0,0 l/m 0 min 2 min 43 W/m 32,2 km/h (5 Bft) 91,49 %
20.02.2022 09:50 8,1 C 7,2 C 4,4 C 96 % 1009,0 hPa 0,0 l/m 0 min 2 min 44 W/m 29,0 km/h (5 Bft) 93,48 %
20.02.2022 09:52 8,1 C 7,2 C 4,4 C 96 % 1009,0 hPa 0,0 l/m 0 min 2 min 43 W/m 45,1 km/h (6 Bft) 93,62 %
20.02.2022 09:54 8,1 C 7,2 C 4,4 C 96 % 1008,9 hPa 0,0 l/m 0 min 2 min 38 W/m 32,2 km/h (5 Bft) 93,62 %
20.02.2022 09:56 8,2 C 7,2 C 4,4 C 96 % 1009,0 hPa 0,0 l/m 0 min 2 min 39 W/m 38,6 km/h (5 Bft) 95,74 %
20.02.2022 09:58 8,2 C 7,2 C 4,4 C 96 % 1009,0 hPa 0,2 l/m 0 min 2 min 31 W/m 29,0 km/h (5 Bft) 95,74 %
20.02.2022 10:00 8,2 C 7,2 C 4,4 C 96 % 1009,0 hPa 0,0 l/m 0 min 2 min 33 W/m 32,2 km/h (5 Bft) 95,74 %
20.02.2022 10:02 8,2 C 7,2 C 4,4 C 96 % 1008,9 hPa 0,0 l/m 0 min 2 min 35 W/m 32,2 km/h (5 Bft) 93,48 %
20.02.2022 10:04 8,2 C 7,2 C 4,4 C 96 % 1008,9 hPa 0,0 l/m 0 min 2 min 39 W/m 22,5 km/h (4 Bft) 93,62 %
20.02.2022 10:06 8,2 C 7,2 C 4,4 C 96 % 1008,9 hPa 0,0 l/m 0 min 2 min 41 W/m 38,6 km/h (5 Bft) 93,62 %
20.02.2022 10:08 8,2 C 7,2 C 4,4 C 96 % 1009,0 hPa 0,0 l/m 0 min 2 min 47 W/m 32,2 km/h (5 Bft) 96,00 %
20.02.2022 10:10 8,2 C 7,2 C 4,4 C 96 % 1008,9 hPa 0,0 l/m 0 min 2 min 46 W/m 22,5 km/h (4 Bft) 95,74 %
20.02.2022 10:12 8,2 C 7,2 C 4,4 C 96 % 1008,9 hPa 0,0 l/m 0 min 2 min 43 W/m 61,2 km/h (7 Bft) 93,62 %
20.02.2022 10:14 8,2 C 7,2 C 4,4 C 96 % 1009,0 hPa 0,0 l/m 0 min 2 min 44 W/m 45,1 km/h (6 Bft) 97,83 %
20.02.2022 10:16 8,3 C 7,2 C 4,4 C 96 % 1008,9 hPa 0,0 l/m 0 min 2 min 41 W/m 35,4 km/h (5 Bft) 97,87 %
20.02.2022 10:18 8,3 C 7,2 C 4,4 C 96 % 1008,9 hPa 0,0 l/m 0 min 2 min 39 W/m 25,7 km/h (4 Bft) 100,00 %
20.02.2022 10:20 8,3 C 7,2 C 4,4 C 96 % 1009,0 hPa 0,0 l/m 0 min 2 min 42 W/m 70,8 km/h (8 Bft) 100,00 %
20.02.2022 10:22 8,3 C 7,2 C 4,4 C 96 % 1009,0 hPa 0,0 l/m 0 min 2 min 46 W/m 25,7 km/h (4 Bft) 95,74 %
20.02.2022 10:24 8,3 C 7,2 C 4,4 C 96 % 1008,9 hPa 0,0 l/m 0 min 2 min 42 W/m 25,7 km/h (4 Bft) 100,00 %
20.02.2022 10:26 8,3 C 7,2 C 4,4 C 96 % 1008,9 hPa 0,0 l/m 0 min 2 min 45 W/m 35,4 km/h (5 Bft) 100,00 %
20.02.2022 10:28 8,3 C 7,2 C 4,4 C 96 % 1009,1 hPa 0,0 l/m 0 min 2 min 41 W/m 29,0 km/h (5 Bft) 100,00 %
20.02.2022 10:30 8,3 C 7,2 C 4,4 C 96 % 1009,1 hPa 0,0 l/m 0 min 2 min 41 W/m 29,0 km/h (5 Bft) 100,00 %
20.02.2022 10:32 8,4 C 7,2 C 4,4 C 96 % 1008,9 hPa 0,0 l/m 0 min 0 min 45 W/m 22,5 km/h (4 Bft) 100,00 %
20.02.2022 10:34 8,4 C 7,2 C 5,0 C 96 % 1009,0 hPa 0,0 l/m 0 min 2 min 43 W/m 25,7 km/h (4 Bft) 100,00 %
20.02.2022 10:36 8,4 C 7,8 C 5,0 C 96 % 1009,0 hPa 0,0 l/m 0 min 2 min 47 W/m 48,3 km/h (6 Bft) 100,00 %
20.02.2022 10:38 8,4 C 7,8 C 5,0 C 96 % 1008,9 hPa 0,0 l/m 0 min 2 min 47 W/m 29,0 km/h (5 Bft) 100,00 %
20.02.2022 10:40 8,4 C 7,8 C 5,0 C 96 % 1008,9 hPa 0,0 l/m 0 min 2 min 37 W/m 35,4 km/h (5 Bft) 100,00 %
20.02.2022 10:42 8,4 C 7,8 C 5,0 C 96 % 1008,8 hPa 0,0 l/m 0 min 2 min 38 W/m 51,5 km/h (7 Bft) 100,00 %
20.02.2022 10:44 8,5 C 7,8 C 5,0 C 96 % 1008,8 hPa 0,0 l/m 0 min 2 min 40 W/m 29,0 km/h (5 Bft) 100,00 %
20.02.2022 10:46 8,5 C 7,8 C 5,0 C 96 % 1008,9 hPa 0,0 l/m 0 min 2 min 40 W/m 35,4 km/h (5 Bft) 100,00 %
20.02.2022 10:48 8,5 C 7,8 C 5,0 C 96 % 1008,8 hPa 0,0 l/m 0 min 2 min 32 W/m 19,3 km/h (3 Bft) 100,00 %
20.02.2022 10:50 8,6 C 7,8 C 5,0 C 96 % 1008,8 hPa 0,0 l/m 0 min 2 min 38 W/m 16,1 km/h (3 Bft) 100,00 %
20.02.2022 10:52 8,5 C 7,8 C 5,0 C 96 % 1008,8 hPa 0,0 l/m 0 min 0 min 46 W/m 41,8 km/h (6 Bft) 100,00 %
20.02.2022 10:54 8,6 C 7,8 C 5,0 C 96 % 1008,8 hPa 0,0 l/m 0 min 0 min 43 W/m 38,6 km/h (5 Bft) 100,00 %
20.02.2022 10:56 8,6 C 7,8 C 5,0 C 96 % 1008,7 hPa 0,0 l/m 0 min 0 min 57 W/m 32,2 km/h (5 Bft) 100,00 %
20.02.2022 10:58 8,6 C 7,8 C 5,0 C 96 % 1008,6 hPa 0,0 l/m 0 min 0 min 83 W/m 38,6 km/h (5 Bft) 100,00 %
20.02.2022 11:00 8,6 C 7,8 C 5,0 C 96 % 1008,7 hPa 0,0 l/m 0 min 0 min 104 W/m 51,5 km/h (7 Bft) 100,00 %
20.02.2022 11:02 8,6 C 7,8 C 5,0 C 96 % 1008,5 hPa 0,0 l/m 0 min 2 min 95 W/m 35,4 km/h (5 Bft) 100,00 %
20.02.2022 11:04 8,7 C 7,8 C 5,0 C 96 % 1008,5 hPa 0,0 l/m 0 min 2 min 81 W/m 35,4 km/h (5 Bft) 100,00 %
20.02.2022 11:06 8,7 C 7,8 C 5,0 C 96 % 1008,6 hPa 0,0 l/m 0 min 2 min 77 W/m 22,5 km/h (4 Bft) 100,00 %
20.02.2022 11:08 8,7 C 7,8 C 5,0 C 96 % 1008,6 hPa 0,0 l/m 0 min 2 min 103 W/m 32,2 km/h (5 Bft) 100,00 %
20.02.2022 11:10 8,7 C 7,8 C 5,0 C 96 % 1008,6 hPa 0,0 l/m 0 min 2 min 107 W/m 35,4 km/h (5 Bft) 100,00 %
20.02.2022 11:12 8,7 C 8,3 C 5,0 C 96 % 1008,5 hPa 0,0 l/m 0 min 2 min 116 W/m 32,2 km/h (5 Bft) 100,00 %
20.02.2022 11:14 8,7 C 8,3 C 5,0 C 96 % 1008,4 hPa 0,0 l/m 0 min 2 min 101 W/m 48,3 km/h (6 Bft) 100,00 %
20.02.2022 11:16 8,7 C 8,3 C 5,0 C 96 % 1008,6 hPa 0,0 l/m 0 min 2 min 104 W/m 38,6 km/h (5 Bft) 100,00 %
20.02.2022 11:18 8,8 C 8,3 C 5,0 C 96 % 1008,6 hPa 0,0 l/m 0 min 0 min 96 W/m 25,7 km/h (4 Bft) 100,00 %
20.02.2022 11:20 8,8 C 8,3 C 5,6 C 96 % 1008,5 hPa 0,0 l/m 0 min 0 min 83 W/m 25,7 km/h (4 Bft) 100,00 %
20.02.2022 11:22 8,8 C 8,3 C 5,0 C 96 % 1008,6 hPa 0,0 l/m 0 min 0 min 77 W/m 38,6 km/h (5 Bft) 100,00 %
20.02.2022 11:24 8,8 C 8,3 C 5,6 C 96 % 1008,5 hPa 0,0 l/m 0 min 0 min 76 W/m 38,6 km/h (5 Bft) 100,00 %
20.02.2022 11:26 8,8 C 8,3 C 5,6 C 96 % 1008,5 hPa 0,0 l/m 0 min 2 min 56 W/m 38,6 km/h (5 Bft) 97,87 %
20.02.2022 11:28 8,8 C 8,3 C 5,6 C 96 % 1008,7 hPa 0,0 l/m 0 min 0 min 77 W/m 12,9 km/h (3 Bft) 100,00 %
20.02.2022 11:30 8,8 C 8,3 C 5,6 C 96 % 1008,6 hPa 0,0 l/m 0 min 0 min 80 W/m 29,0 km/h (5 Bft) 100,00 %
20.02.2022 11:32 8,9 C 8,3 C 5,6 C 96 % 1008,6 hPa 0,0 l/m 0 min 0 min 83 W/m 19,3 km/h (3 Bft) 97,87 %
20.02.2022 11:34 8,9 C 8,3 C 5,6 C 96 % 1008,4 hPa 0,0 l/m 0 min 0 min 93 W/m 29,0 km/h (5 Bft) 100,00 %
20.02.2022 11:36 8,9 C 8,3 C 5,6 C 96 % 1008,5 hPa 0,0 l/m 0 min 0 min 76 W/m 19,3 km/h (3 Bft) 97,87 %
20.02.2022 11:38 9,0 C 8,3 C 5,6 C 96 % 1008,3 hPa 0,0 l/m 0 min 0 min 81 W/m 38,6 km/h (5 Bft) 100,00 %
20.02.2022 11:40 9,1 C 8,9 C 5,6 C 96 % 1008,4 hPa 0,0 l/m 0 min 0 min 107 W/m 32,2 km/h (5 Bft) 97,87 %
20.02.2022 11:42 9,1 C 8,9 C 5,6 C 96 % 1008,4 hPa 0,0 l/m 0 min 0 min 103 W/m 22,5 km/h (4 Bft) 95,74 %
20.02.2022 11:44 9,1 C 8,9 C 5,6 C 95 % 1008,4 hPa 0,0 l/m 0 min 0 min 112 W/m 19,3 km/h (3 Bft) 97,87 %
20.02.2022 11:46 9,2 C 8,9 C 5,6 C 96 % 1008,3 hPa 0,0 l/m 0 min 0 min 148 W/m 48,3 km/h (6 Bft) 97,83 %
20.02.2022 11:51 9,3 C 8,9 C 5,6 C 95 % 1008,3 hPa 0,0 l/m 0 min 0 min 135 W/m 35,4 km/h (5 Bft) 97,01 %
20.02.2022 11:52 9,4 C 9,4 C 5,6 C 95 % 1008,3 hPa 0,0 l/m 0 min 0 min 149 W/m 12,9 km/h (3 Bft) 95,83 %
20.02.2022 11:54 9,4 C 8,9 C 5,6 C 95 % 1008,3 hPa 0,0 l/m 0 min 0 min 125 W/m 29,0 km/h (5 Bft) 97,87 %
20.02.2022 11:56 9,5 C 8,9 C 5,6 C 95 % 1008,3 hPa 0,0 l/m 0 min 0 min 109 W/m 32,2 km/h (5 Bft) 97,87 %
20.02.2022 11:58 9,5 C 8,9 C 5,6 C 94 % 1008,4 hPa 0,0 l/m 0 min 0 min 87 W/m 35,4 km/h (5 Bft) 97,83 %
20.02.2022 12:00 9,6 C 8,9 C 5,6 C 94 % 1008,4 hPa 0,0 l/m 0 min 0 min 87 W/m 32,2 km/h (5 Bft) 95,74 %
20.02.2022 12:02 9,6 C 8,9 C 5,6 C 94 % 1008,3 hPa 0,0 l/m 0 min 0 min 65 W/m 35,4 km/h (5 Bft) 95,74 %
20.02.2022 12:04 9,6 C 8,9 C 5,6 C 94 % 1008,4 hPa 0,0 l/m 0 min 0 min 50 W/m 25,7 km/h (4 Bft) 93,62 %
20.02.2022 12:08 9,6 C 8,9 C 5,6 C 93 % 1008,3 hPa 0,0 l/m 0 min 0 min 37 W/m 70,8 km/h (8 Bft) 91,40 %
20.02.2022 12:10 9,6 C 8,9 C 5,6 C 93 % 1008,3 hPa 0,0 l/m 0 min 0 min 51 W/m 41,8 km/h (6 Bft) 93,62 %
20.02.2022 12:12 9,6 C 8,9 C 5,6 C 93 % 1008,3 hPa 0,0 l/m 0 min 0 min 55 W/m 35,4 km/h (5 Bft) 95,74 %
20.02.2022 12:14 9,6 C 8,9 C 5,6 C 93 % 1008,3 hPa 0,0 l/m 0 min 0 min 54 W/m 61,2 km/h (7 Bft) 95,74 %
20.02.2022 12:16 9,7 C 8,9 C 5,6 C 93 % 1008,4 hPa 0,0 l/m 0 min 0 min 66 W/m 38,6 km/h (5 Bft) 95,74 %
20.02.2022 12:18 9,7 C 9,4 C 5,6 C 93 % 1008,3 hPa 0,0 l/m 0 min 0 min 75 W/m 22,5 km/h (4 Bft) 93,62 %
20.02.2022 12:20 9,7 C 9,4 C 5,6 C 92 % 1008,4 hPa 0,0 l/m 0 min 0 min 82 W/m 45,1 km/h (6 Bft) 95,65 %
20.02.2022 12:22 9,7 C 9,4 C 5,6 C 92 % 1008,3 hPa 0,0 l/m 0 min 0 min 109 W/m 32,2 km/h (5 Bft) 95,74 %
20.02.2022 12:24 9,8 C 9,4 C 5,6 C 92 % 1008,3 hPa 0,0 l/m 0 min 0 min 131 W/m 38,6 km/h (5 Bft) 93,62 %
20.02.2022 12:26 9,8 C 9,4 C 5,6 C 92 % 1008,3 hPa 0,0 l/m 0 min 0 min 117 W/m 38,6 km/h (5 Bft) 95,74 %
20.02.2022 12:28 9,8 C 9,4 C 5,6 C 92 % 1008,2 hPa 0,0 l/m 0 min 0 min 90 W/m 19,3 km/h (3 Bft) 95,74 %
20.02.2022 12:30 9,8 C 9,4 C 5,6 C 92 % 1008,3 hPa 0,0 l/m 0 min 0 min 64 W/m 57,9 km/h (7 Bft) 97,87 %
20.02.2022 12:32 9,8 C 9,4 C 5,6 C 92 % 1008,1 hPa 0,0 l/m 0 min 0 min 62 W/m 41,8 km/h (6 Bft) 95,65 %
20.02.2022 12:34 9,8 C 9,4 C 5,6 C 92 % 1008,1 hPa 0,0 l/m 0 min 0 min 64 W/m 38,6 km/h (5 Bft) 95,74 %
20.02.2022 12:36 9,8 C 9,4 C 5,6 C 92 % 1008,0 hPa 0,0 l/m 0 min 0 min 64 W/m 35,4 km/h (5 Bft) 93,62 %
20.02.2022 12:38 9,8 C 9,4 C 5,6 C 92 % 1008,0 hPa 0,0 l/m 0 min 0 min 83 W/m 29,0 km/h (5 Bft) 95,74 %
20.02.2022 12:40 9,8 C 9,4 C 5,6 C 92 % 1008,1 hPa 0,0 l/m 0 min 0 min 111 W/m 32,2 km/h (5 Bft) 91,49 %
20.02.2022 12:42 9,8 C 9,4 C 5,6 C 92 % 1008,0 hPa 0,0 l/m 0 min 2 min 133 W/m 35,4 km/h (5 Bft) 95,74 %
20.02.2022 12:44 9,8 C 9,4 C 5,6 C 92 % 1007,8 hPa 0,0 l/m 0 min 2 min 121 W/m 29,0 km/h (5 Bft) 95,65 %
20.02.2022 12:46 9,8 C 9,4 C 5,6 C 92 % 1007,9 hPa 0,0 l/m 0 min 2 min 113 W/m 51,5 km/h (7 Bft) 95,74 %
20.02.2022 12:48 9,8 C 9,4 C 5,6 C 92 % 1008,0 hPa 0,0 l/m 0 min 2 min 108 W/m 45,1 km/h (6 Bft) 93,62 %
20.02.2022 12:50 9,8 C 9,4 C 5,6 C 92 % 1007,8 hPa 0,0 l/m 0 min 2 min 104 W/m 35,4 km/h (5 Bft) 95,74 %
20.02.2022 12:52 9,8 C 9,4 C 5,6 C 92 % 1008,0 hPa 0,0 l/m 0 min 2 min 102 W/m 22,5 km/h (4 Bft) 100,00 %
20.02.2022 12:54 9,8 C 8,9 C 5,6 C 92 % 1007,9 hPa 0,0 l/m 0 min 2 min 102 W/m 29,0 km/h (5 Bft) 100,00 %
20.02.2022 12:56 9,8 C 8,9 C 5,6 C 92 % 1007,9 hPa 0,2 l/m 0 min 2 min 102 W/m 22,5 km/h (4 Bft) 100,00 %
20.02.2022 12:58 9,8 C 8,9 C 5,6 C 93 % 1007,9 hPa 0,0 l/m 0 min 2 min 93 W/m 35,4 km/h (5 Bft) 100,00 %
20.02.2022 13:00 9,7 C 8,9 C 5,6 C 93 % 1007,9 hPa 0,0 l/m 0 min 2 min 90 W/m 32,2 km/h (5 Bft) 97,87 %
20.02.2022 13:02 9,7 C 8,9 C 5,6 C 93 % 1007,7 hPa 0,0 l/m 0 min 2 min 95 W/m 45,1 km/h (6 Bft) 95,74 %
20.02.2022 13:04 9,7 C 8,9 C 5,6 C 93 % 1007,8 hPa 0,0 l/m 0 min 2 min 104 W/m 29,0 km/h (5 Bft) 100,00 %
20.02.2022 13:06 9,7 C 8,9 C 5,6 C 93 % 1007,7 hPa 0,0 l/m 0 min 2 min 125 W/m 29,0 km/h (5 Bft) 100,00 %
20.02.2022 13:08 9,7 C 9,4 C 6,1 C 93 % 1007,8 hPa 0,0 l/m 0 min 2 min 137 W/m 22,5 km/h (4 Bft) 100,00 %
20.02.2022 13:10 9,7 C 9,4 C 6,1 C 93 % 1007,8 hPa 0,0 l/m 0 min 2 min 135 W/m 19,3 km/h (3 Bft) 100,00 %
20.02.2022 13:12 9,8 C 9,4 C 6,1 C 93 % 1007,7 hPa 0,0 l/m 0 min 2 min 131 W/m 25,7 km/h (4 Bft) 100,00 %
20.02.2022 13:14 9,7 C 9,4 C 6,1 C 93 % 1007,7 hPa 0,0 l/m 0 min 2 min 135 W/m 32,2 km/h (5 Bft) 100,00 %
20.02.2022 13:16 9,8 C 9,4 C 6,1 C 93 % 1007,7 hPa 0,0 l/m 0 min 2 min 142 W/m 41,8 km/h (6 Bft) 97,87 %
20.02.2022 13:18 9,8 C 9,4 C 6,1 C 93 % 1007,7 hPa 0,0 l/m 0 min 2 min 142 W/m 22,5 km/h (4 Bft) 100,00 %
20.02.2022 13:20 9,8 C 9,4 C 6,1 C 93 % 1007,7 hPa 0,0 l/m 0 min 2 min 128 W/m 32,2 km/h (5 Bft) 100,00 %
20.02.2022 13:22 9,8 C 9,4 C 6,1 C 93 % 1007,6 hPa 0,0 l/m 0 min 2 min 111 W/m 32,2 km/h (5 Bft) 100,00 %
20.02.2022 13:24 9,8 C 9,4 C 6,1 C 93 % 1007,6 hPa 0,0 l/m 0 min 2 min 119 W/m 29,0 km/h (5 Bft) 100,00 %
20.02.2022 13:26 9,8 C 9,4 C 6,1 C 93 % 1007,5 hPa 0,0 l/m 0 min 2 min 117 W/m 41,8 km/h (6 Bft) 97,87 %
20.02.2022 13:28 9,8 C 9,4 C 6,1 C 93 % 1007,3 hPa 0,0 l/m 0 min 2 min 121 W/m 25,7 km/h (4 Bft) 100,00 %
20.02.2022 13:30 9,8 C 9,4 C 6,1 C 93 % 1007,3 hPa 0,0 l/m 0 min 2 min 121 W/m 29,0 km/h (5 Bft) 100,00 %
20.02.2022 13:32 9,8 C 9,4 C 6,1 C 93 % 1007,3 hPa 0,0 l/m 0 min 2 min 119 W/m 35,4 km/h (5 Bft) 97,87 %
20.02.2022 13:34 9,8 C 9,4 C 6,1 C 93 % 1007,2 hPa 0,0 l/m 0 min 2 min 121 W/m 54,7 km/h (7 Bft) 100,00 %
20.02.2022 13:36 9,8 C 8,9 C 6,1 C 93 % 1007,2 hPa 0,0 l/m 0 min 2 min 116 W/m 29,0 km/h (5 Bft) 100,00 %
20.02.2022 13:38 9,8 C 8,9 C 6,1 C 93 % 1007,2 hPa 0,2 l/m 0 min 2 min 119 W/m 25,7 km/h (4 Bft) 97,87 %
20.02.2022 13:40 9,8 C 9,4 C 6,1 C 93 % 1007,2 hPa 0,0 l/m 0 min 2 min 108 W/m 54,7 km/h (7 Bft) 97,87 %
20.02.2022 13:42 9,8 C 9,4 C 6,1 C 93 % 1007,2 hPa 0,0 l/m 0 min 2 min 107 W/m 19,3 km/h (3 Bft) 97,92 %
20.02.2022 13:44 9,8 C 9,4 C 6,1 C 93 % 1007,2 hPa 0,0 l/m 0 min 2 min 110 W/m 35,4 km/h (5 Bft) 97,87 %
20.02.2022 13:46 9,8 C 9,4 C 6,1 C 93 % 1007,3 hPa 0,0 l/m 0 min 2 min 117 W/m 25,7 km/h (4 Bft) 97,87 %
20.02.2022 13:48 9,8 C 9,4 C 6,1 C 94 % 1007,1 hPa 0,0 l/m 0 min 2 min 118 W/m 22,5 km/h (4 Bft) 97,92 %
20.02.2022 13:50 9,8 C 9,4 C 6,1 C 94 % 1007,1 hPa 0,0 l/m 0 min 2 min 122 W/m 32,2 km/h (5 Bft) 97,87 %
20.02.2022 13:52 9,8 C 9,4 C 6,1 C 94 % 1007,0 hPa 0,0 l/m 0 min 2 min 118 W/m 25,7 km/h (4 Bft) 97,92 %
20.02.2022 13:54 9,8 C 9,4 C 6,1 C 94 % 1007,1 hPa 0,0 l/m 0 min 2 min 108 W/m 22,5 km/h (4 Bft) 97,83 %
20.02.2022 13:56 9,8 C 9,4 C 6,1 C 94 % 1007,1 hPa 0,0 l/m 0 min 2 min 105 W/m 22,5 km/h (4 Bft) 97,87 %
20.02.2022 13:58 9,8 C 8,9 C 6,1 C 94 % 1007,1 hPa 0,0 l/m 0 min 2 min 101 W/m 35,4 km/h (5 Bft) 95,74 %
20.02.2022 14:00 9,9 C 8,9 C 6,1 C 94 % 1007,1 hPa 0,0 l/m 0 min 2 min 92 W/m 29,0 km/h (5 Bft) 97,87 %
20.02.2022 14:02 9,8 C 8,9 C 6,1 C 94 % 1007,0 hPa 0,0 l/m 0 min 2 min 103 W/m 32,2 km/h (5 Bft) 97,87 %
20.02.2022 14:04 9,8 C 8,9 C 6,1 C 94 % 1007,0 hPa 0,0 l/m 0 min 2 min 103 W/m 22,5 km/h (4 Bft) 97,87 %
20.02.2022 14:06 9,8 C 8,9 C 6,1 C 94 % 1007,0 hPa 0,0 l/m 0 min 2 min 98 W/m 32,2 km/h (5 Bft) 97,83 %
20.02.2022 14:08 9,8 C 8,9 C 6,1 C 94 % 1006,9 hPa 0,0 l/m 0 min 2 min 85 W/m 25,7 km/h (4 Bft) 95,74 %
20.02.2022 14:10 9,8 C 8,9 C 6,1 C 94 % 1006,8 hPa 0,0 l/m 0 min 2 min 84 W/m 38,6 km/h (5 Bft) 100,00 %
20.02.2022 14:12 9,8 C 8,9 C 6,1 C 94 % 1006,8 hPa 0,2 l/m 0 min 2 min 80 W/m 29,0 km/h (5 Bft) 100,00 %
20.02.2022 14:14 9,8 C 8,9 C 6,1 C 93 % 1006,8 hPa 0,0 l/m 0 min 2 min 74 W/m 29,0 km/h (5 Bft) 100,00 %
20.02.2022 14:16 9,8 C 8,9 C 6,1 C 93 % 1006,8 hPa 0,0 l/m 0 min 2 min 71 W/m 35,4 km/h (5 Bft) 100,00 %
20.02.2022 14:18 9,8 C 8,9 C 6,1 C 93 % 1006,8 hPa 0,0 l/m 0 min 2 min 67 W/m 48,3 km/h (6 Bft) 100,00 %
20.02.2022 14:20 9,8 C 8,9 C 6,1 C 93 % 1006,6 hPa 0,0 l/m 0 min 2 min 68 W/m 45,1 km/h (6 Bft) 100,00 %
20.02.2022 14:22 9,8 C 8,9 C 6,1 C 93 % 1006,7 hPa 0,0 l/m 0 min 2 min 69 W/m 22,5 km/h (4 Bft) 100,00 %
20.02.2022 14:24 9,8 C 8,9 C 6,1 C 93 % 1006,6 hPa 0,0 l/m 0 min 2 min 68 W/m 51,5 km/h (7 Bft) 100,00 %
20.02.2022 14:26 9,8 C 8,3 C 6,1 C 93 % 1006,5 hPa 0,0 l/m 0 min 2 min 69 W/m 29,0 km/h (5 Bft) 100,00 %
20.02.2022 14:28 9,8 C 8,3 C 6,1 C 94 % 1006,5 hPa 0,2 l/m 0 min 2 min 68 W/m 25,7 km/h (4 Bft) 100,00 %
20.02.2022 14:30 9,8 C 8,3 C 6,1 C 94 % 1006,5 hPa 0,0 l/m 0 min 2 min 77 W/m 41,8 km/h (6 Bft) 100,00 %
20.02.2022 14:32 9,7 C 8,3 C 6,1 C 94 % 1006,4 hPa 0,0 l/m 0 min 2 min 89 W/m 32,2 km/h (5 Bft) 95,83 %
20.02.2022 14:34 9,7 C 8,3 C 6,1 C 94 % 1006,4 hPa 0,0 l/m 0 min 2 min 88 W/m 38,6 km/h (5 Bft) 100,00 %
20.02.2022 14:36 9,7 C 8,3 C 6,1 C 94 % 1006,4 hPa 0,0 l/m 0 min 2 min 90 W/m 41,8 km/h (6 Bft) 100,00 %
20.02.2022 14:38 9,7 C 8,3 C 6,1 C 94 % 1006,4 hPa 0,0 l/m 0 min 2 min 90 W/m 48,3 km/h (6 Bft) 100,00 %
20.02.2022 14:40 9,7 C 8,9 C 6,1 C 94 % 1006,3 hPa 0,0 l/m 0 min 2 min 88 W/m 32,2 km/h (5 Bft) 93,48 %
20.02.2022 14:42 9,7 C 8,9 C 6,1 C 94 % 1006,2 hPa 0,0 l/m 0 min 2 min 83 W/m 41,8 km/h (6 Bft) 100,00 %
20.02.2022 14:44 9,7 C 8,9 C 6,1 C 94 % 1006,2 hPa 0,0 l/m 0 min 2 min 82 W/m 38,6 km/h (5 Bft) 100,00 %
20.02.2022 14:46 9,7 C 8,9 C 6,1 C 94 % 1006,2 hPa 0,0 l/m 0 min 2 min 67 W/m 45,1 km/h (6 Bft) 97,87 %
20.02.2022 14:48 9,7 C 8,3 C 6,1 C 94 % 1006,3 hPa 0,2 l/m 0 min 2 min 70 W/m 38,6 km/h (5 Bft) 97,87 %
20.02.2022 14:50 9,7 C 8,3 C 6,1 C 94 % 1006,1 hPa 0,0 l/m 0 min 2 min 72 W/m 61,2 km/h (7 Bft) 97,87 %
20.02.2022 14:52 9,7 C 8,3 C 6,1 C 94 % 1006,2 hPa 0,0 l/m 0 min 2 min 70 W/m 45,1 km/h (6 Bft) 97,83 %
20.02.2022 14:54 9,7 C 8,3 C 6,1 C 94 % 1006,1 hPa 0,0 l/m 0 min 2 min 60 W/m 29,0 km/h (5 Bft) 97,87 %
20.02.2022 14:56 9,7 C 8,3 C 6,1 C 94 % 1006,0 hPa 0,0 l/m 0 min 2 min 54 W/m 25,7 km/h (4 Bft) 97,87 %
20.02.2022 14:58 9,7 C 8,3 C 6,1 C 94 % 1005,9 hPa 0,0 l/m 0 min 2 min 57 W/m 32,2 km/h (5 Bft) 95,74 %
20.02.2022 15:00 9,6 C 8,3 C 6,1 C 94 % 1006,0 hPa 0,0 l/m 0 min 2 min 56 W/m 41,8 km/h (6 Bft) 93,62 %
20.02.2022 15:02 9,6 C 8,9 C 6,1 C 94 % 1006,1 hPa 0,2 l/m 0 min 2 min 57 W/m 32,2 km/h (5 Bft) 95,74 %
20.02.2022 15:04 9,6 C 8,3 C 6,1 C 94 % 1006,0 hPa 0,0 l/m 0 min 2 min 54 W/m 41,8 km/h (6 Bft) 93,48 %
20.02.2022 15:06 9,6 C 8,3 C 6,1 C 94 % 1005,9 hPa 0,0 l/m 0 min 2 min 54 W/m 32,2 km/h (5 Bft) 95,74 %
20.02.2022 15:08 9,7 C 8,3 C 6,1 C 94 % 1005,9 hPa 0,0 l/m 0 min 2 min 49 W/m 25,7 km/h (4 Bft) 95,74 %
20.02.2022 15:10 9,7 C 8,3 C 6,1 C 94 % 1005,9 hPa 0,0 l/m 0 min 2 min 46 W/m 22,5 km/h (4 Bft) 95,74 %
20.02.2022 15:12 9,6 C 8,3 C 6,1 C 94 % 1005,7 hPa 0,0 l/m 0 min 2 min 45 W/m 41,8 km/h (6 Bft) 93,62 %
20.02.2022 15:14 9,6 C 8,3 C 6,1 C 94 % 1005,8 hPa 0,0 l/m 0 min 2 min 43 W/m 22,5 km/h (4 Bft) 93,62 %
20.02.2022 15:16 9,6 C 8,3 C 6,1 C 94 % 1005,7 hPa 0,0 l/m 0 min 2 min 40 W/m 35,4 km/h (5 Bft) 93,48 %
20.02.2022 15:18 9,6 C 8,3 C 6,1 C 94 % 1005,7 hPa 0,2 l/m 0 min 2 min 40 W/m 32,2 km/h (5 Bft) 95,74 %
20.02.2022 15:20 9,6 C 8,3 C 6,1 C 94 % 1005,7 hPa 0,0 l/m 0 min 2 min 40 W/m 35,4 km/h (5 Bft) 93,62 %
20.02.2022 15:22 9,6 C 8,3 C 6,1 C 94 % 1005,6 hPa 0,0 l/m 0 min 2 min 33 W/m 35,4 km/h (5 Bft) 95,74 %
20.02.2022 15:24 9,6 C 8,3 C 6,1 C 94 % 1005,6 hPa 0,0 l/m 0 min 2 min 35 W/m 25,7 km/h (4 Bft) 95,74 %
20.02.2022 15:26 9,6 C 8,3 C 6,1 C 94 % 1005,5 hPa 0,0 l/m 0 min 2 min 36 W/m 22,5 km/h (4 Bft) 95,65 %
20.02.2022 15:28 9,6 C 8,3 C 6,1 C 94 % 1005,4 hPa 0,2 l/m 0 min 2 min 32 W/m 25,7 km/h (4 Bft) 95,74 %
20.02.2022 15:30 9,6 C 8,3 C 6,1 C 94 % 1005,4 hPa 0,0 l/m 0 min 2 min 32 W/m 48,3 km/h (6 Bft) 95,74 %
20.02.2022 15:32 9,6 C 8,3 C 6,1 C 94 % 1005,3 hPa 0,0 l/m 0 min 2 min 30 W/m 25,7 km/h (4 Bft) 91,43 %
20.02.2022 15:34 9,5 C 8,3 C 6,1 C 94 % 1005,3 hPa 0,0 l/m 0 min 2 min 29 W/m 35,4 km/h (5 Bft) 97,87 %
20.02.2022 15:36 9,5 C 8,3 C 6,1 C 95 % 1005,2 hPa 0,0 l/m 0 min 2 min 27 W/m 29,0 km/h (5 Bft) 93,22 %
20.02.2022 15:38 9,5 C 8,3 C 6,1 C 95 % 1005,2 hPa 0,2 l/m 0 min 2 min 25 W/m 25,7 km/h (4 Bft) 91,43 %
20.02.2022 15:40 9,5 C 8,3 C 6,1 C 95 % 1005,1 hPa 0,0 l/m 0 min 2 min 27 W/m 41,8 km/h (6 Bft) 95,74 %
20.02.2022 15:42 9,5 C 8,3 C 6,1 C 95 % 1005,0 hPa 0,0 l/m 0 min 2 min 28 W/m 29,0 km/h (5 Bft) 96,23 %
20.02.2022 15:44 9,5 C 8,3 C 6,1 C 95 % 1004,9 hPa 0,0 l/m 0 min 2 min 37 W/m 35,4 km/h (5 Bft) 95,74 %
20.02.2022 15:46 9,5 C 8,3 C 6,1 C 95 % 1005,0 hPa 0,0 l/m 0 min 2 min 38 W/m 25,7 km/h (4 Bft) 95,74 %
20.02.2022 15:48 9,5 C 8,3 C 6,1 C 95 % 1004,9 hPa 0,0 l/m 0 min 2 min 32 W/m 51,5 km/h (7 Bft) 97,87 %
20.02.2022 15:50 9,5 C 8,3 C 6,1 C 95 % 1004,9 hPa 0,2 l/m 0 min 2 min 30 W/m 29,0 km/h (5 Bft) 97,87 %
20.02.2022 15:52 9,5 C 8,3 C 6,1 C 95 % 1004,8 hPa 0,0 l/m 0 min 2 min 29 W/m 54,7 km/h (7 Bft) 95,74 %
20.02.2022 15:54 9,5 C 8,3 C 6,1 C 95 % 1004,8 hPa 0,0 l/m 0 min 2 min 29 W/m 22,5 km/h (4 Bft) 100,00 %
20.02.2022 15:56 9,6 C 8,3 C 6,1 C 95 % 1004,8 hPa 0,0 l/m 0 min 2 min 30 W/m 29,0 km/h (5 Bft) 95,83 %
20.02.2022 15:58 9,5 C 8,3 C 6,1 C 95 % 1004,8 hPa 0,0 l/m 0 min 2 min 27 W/m 19,3 km/h (3 Bft) 95,74 %
20.02.2022 16:00 9,6 C 8,3 C 6,1 C 95 % 1004,6 hPa 0,0 l/m 0 min 2 min 24 W/m 45,1 km/h (6 Bft) 95,74 %
20.02.2022 16:02 9,6 C 8,3 C 6,1 C 94 % 1004,6 hPa 0,0 l/m 0 min 2 min 25 W/m 25,7 km/h (4 Bft) 97,83 %
20.02.2022 16:04 9,6 C 8,3 C 6,1 C 94 % 1004,5 hPa 0,0 l/m 0 min 2 min 25 W/m 38,6 km/h (5 Bft) 97,87 %
20.02.2022 16:06 9,6 C 8,3 C 6,1 C 94 % 1004,5 hPa 0,0 l/m 0 min 2 min 25 W/m 29,0 km/h (5 Bft) 100,00 %
20.02.2022 16:08 9,6 C 8,3 C 6,1 C 94 % 1004,4 hPa 0,0 l/m 0 min 2 min 26 W/m 25,7 km/h (4 Bft) 100,00 %
20.02.2022 16:10 9,7 C 8,9 C 6,1 C 94 % 1004,4 hPa 0,0 l/m 0 min 2 min 27 W/m 41,8 km/h (6 Bft) 100,00 %
20.02.2022 16:12 9,7 C 8,9 C 6,1 C 94 % 1004,3 hPa 0,2 l/m 0 min 2 min 26 W/m 32,2 km/h (5 Bft) 100,00 %
20.02.2022 16:14 9,7 C 8,9 C 6,1 C 94 % 1004,3 hPa 0,0 l/m 0 min 2 min 26 W/m 38,6 km/h (5 Bft) 100,00 %
20.02.2022 16:16 9,7 C 8,3 C 6,1 C 94 % 1004,2 hPa 0,0 l/m 0 min 2 min 24 W/m 54,7 km/h (7 Bft) 97,87 %
20.02.2022 16:18 9,7 C 8,3 C 6,1 C 94 % 1004,2 hPa 0,0 l/m 0 min 2 min 25 W/m 32,2 km/h (5 Bft) 100,00 %
20.02.2022 16:20 9,7 C 8,9 C 6,1 C 93 % 1004,2 hPa 0,0 l/m 0 min 2 min 25 W/m 35,4 km/h (5 Bft) 100,00 %
20.02.2022 16:22 9,8 C 8,9 C 6,1 C 93 % 1004,2 hPa 0,0 l/m 0 min 2 min 22 W/m 35,4 km/h (5 Bft) 100,00 %
20.02.2022 16:24 9,8 C 8,9 C 6,1 C 93 % 1004,2 hPa 0,0 l/m 0 min 2 min 20 W/m 35,4 km/h (5 Bft) 97,87 %
20.02.2022 16:26 9,8 C 8,9 C 6,1 C 93 % 1004,1 hPa 0,0 l/m 0 min 2 min 21 W/m 25,7 km/h (4 Bft) 97,83 %
20.02.2022 16:28 9,8 C 8,9 C 6,1 C 93 % 1004,0 hPa 0,0 l/m 0 min 2 min 20 W/m 54,7 km/h (7 Bft) 100,00 %
20.02.2022 16:30 9,8 C 8,9 C 6,1 C 93 % 1003,9 hPa 0,0 l/m 0 min 2 min 20 W/m 25,7 km/h (4 Bft) 100,00 %
20.02.2022 16:32 9,8 C 8,9 C 6,1 C 93 % 1004,0 hPa 0,0 l/m 0 min 2 min 20 W/m 35,4 km/h (5 Bft) 97,87 %
20.02.2022 16:34 9,8 C 8,9 C 6,1 C 93 % 1004,1 hPa 0,0 l/m 0 min 2 min 21 W/m 41,8 km/h (6 Bft) 95,74 %
20.02.2022 16:36 9,8 C 8,3 C 6,1 C 93 % 1003,9 hPa 0,0 l/m 0 min 2 min 22 W/m 45,1 km/h (6 Bft) 100,00 %
20.02.2022 16:38 9,8 C 8,3 C 6,1 C 93 % 1003,8 hPa 0,0 l/m 0 min 2 min 19 W/m 41,8 km/h (6 Bft) 100,00 %
20.02.2022 16:40 9,8 C 8,3 C 6,1 C 93 % 1003,7 hPa 0,0 l/m 0 min 2 min 18 W/m 32,2 km/h (5 Bft) 100,00 %
20.02.2022 16:42 9,9 C 8,9 C 6,1 C 93 % 1003,7 hPa 0,0 l/m 0 min 2 min 16 W/m 45,1 km/h (6 Bft) 100,00 %
20.02.2022 16:44 9,9 C 8,3 C 6,1 C 92 % 1003,6 hPa 0,0 l/m 0 min 2 min 18 W/m 35,4 km/h (5 Bft) 97,87 %
20.02.2022 16:46 9,8 C 8,3 C 6,1 C 92 % 1003,6 hPa 0,0 l/m 0 min 2 min 19 W/m 38,6 km/h (5 Bft) 72,34 %
20.02.2022 16:48 9,8 C 8,9 C 6,1 C 92 % 1003,6 hPa 0,0 l/m 0 min 2 min 19 W/m 41,8 km/h (6 Bft) 83,72 %
20.02.2022 16:50 9,8 C 8,9 C 6,1 C 92 % 1003,5 hPa 0,0 l/m 0 min 2 min 17 W/m 38,6 km/h (5 Bft) 100,00 %
20.02.2022 16:52 9,8 C 8,9 C 6,1 C 92 % 1003,5 hPa 0,0 l/m 0 min 2 min 18 W/m 35,4 km/h (5 Bft) 100,00 %
20.02.2022 16:54 9,9 C 8,9 C 6,1 C 92 % 1003,5 hPa 0,0 l/m 0 min 2 min 18 W/m 41,8 km/h (6 Bft) 100,00 %
20.02.2022 16:56 9,9 C 8,9 C 6,1 C 92 % 1003,4 hPa 0,0 l/m 0 min 2 min 17 W/m 41,8 km/h (6 Bft) 100,00 %
20.02.2022 16:58 9,9 C 8,9 C 6,1 C 92 % 1003,4 hPa 0,0 l/m 0 min 2 min 14 W/m 35,4 km/h (5 Bft) 100,00 %
20.02.2022 17:00 9,9 C 8,9 C 6,1 C 92 % 1003,4 hPa 0,0 l/m 0 min 2 min 11 W/m 38,6 km/h (5 Bft) 100,00 %
20.02.2022 17:02 9,9 C 8,9 C 6,1 C 92 % 1003,4 hPa 0,0 l/m 0 min 2 min 11 W/m 45,1 km/h (6 Bft) 100,00 %
20.02.2022 17:04 9,9 C 8,9 C 6,1 C 92 % 1003,2 hPa 0,2 l/m 0 min 2 min 10 W/m 67,6 km/h (8 Bft) 100,00 %
20.02.2022 17:06 9,9 C 8,9 C 6,1 C 92 % 1003,1 hPa 0,0 l/m 0 min 2 min 13 W/m 25,7 km/h (4 Bft) 100,00 %
20.02.2022 17:08 9,8 C 8,9 C 6,1 C 92 % 1003,1 hPa 0,0 l/m 0 min 2 min 11 W/m 41,8 km/h (6 Bft) 97,87 %
20.02.2022 17:10 9,8 C 8,9 C 6,1 C 92 % 1003,0 hPa 0,0 l/m 0 min 2 min 11 W/m 45,1 km/h (6 Bft) 100,00 %
20.02.2022 17:12 9,8 C 8,9 C 6,1 C 92 % 1003,0 hPa 0,0 l/m 0 min 2 min 8 W/m 41,8 km/h (6 Bft) 100,00 %
20.02.2022 17:14 9,9 C 8,9 C 6,1 C 92 % 1003,0 hPa 0,0 l/m 0 min 2 min 7 W/m 48,3 km/h (6 Bft) 100,00 %
20.02.2022 17:16 9,9 C 8,9 C 6,1 C 92 % 1003,0 hPa 0,0 l/m 0 min 2 min 9 W/m 35,4 km/h (5 Bft) 100,00 %
20.02.2022 17:18 9,9 C 8,9 C 6,1 C 92 % 1002,9 hPa 0,0 l/m 0 min 2 min 7 W/m 38,6 km/h (5 Bft) 97,87 %
20.02.2022 17:20 9,9 C 8,9 C 6,1 C 92 % 1002,8 hPa 0,0 l/m 0 min 2 min 7 W/m 32,2 km/h (5 Bft) 100,00 %
20.02.2022 17:22 9,9 C 8,9 C 6,1 C 92 % 1002,8 hPa 0,0 l/m 0 min 2 min 7 W/m 38,6 km/h (5 Bft) 97,87 %
20.02.2022 17:24 9,9 C 8,9 C 6,1 C 92 % 1002,7 hPa 0,0 l/m 0 min 2 min 7 W/m 29,0 km/h (5 Bft) 100,00 %
20.02.2022 17:26 9,9 C 8,9 C 6,1 C 92 % 1002,6 hPa 0,0 l/m 0 min 2 min 6 W/m 61,2 km/h (7 Bft) 97,87 %
20.02.2022 17:28 10,0 C 8,9 C 6,1 C 92 % 1002,7 hPa 0,0 l/m 0 min 2 min 5 W/m 51,5 km/h (7 Bft) 95,74 %
20.02.2022 17:30 10,0 C 8,9 C 6,1 C 92 % 1002,6 hPa 0,0 l/m 0 min 2 min 5 W/m 54,7 km/h (7 Bft) 95,74 %
20.02.2022 17:32 10,0 C 8,9 C 6,1 C 92 % 1002,6 hPa 0,0 l/m 0 min 2 min 2 W/m 45,1 km/h (6 Bft) 90,70 %
20.02.2022 17:34 10,0 C 8,9 C 6,1 C 92 % 1002,6 hPa 0,0 l/m 0 min 2 min 0 W/m 45,1 km/h (6 Bft) 95,74 %
20.02.2022 17:36 10,0 C 8,9 C 6,1 C 92 % 1002,7 hPa 0,0 l/m 0 min 2 min 0 W/m 29,0 km/h (5 Bft) 93,62 %
20.02.2022 17:38 9,9 C 8,3 C 6,1 C 92 % 1002,6 hPa 0,0 l/m 0 min 2 min 0 W/m 38,6 km/h (5 Bft) 95,83 %
20.02.2022 17:40 9,9 C 8,3 C 6,1 C 92 % 1002,6 hPa 0,0 l/m 0 min 2 min 0 W/m 35,4 km/h (5 Bft) 95,83 %
20.02.2022 17:42 9,9 C 8,3 C 6,1 C 92 % 1002,5 hPa 0,0 l/m 0 min 2 min 0 W/m 29,0 km/h (5 Bft) 91,67 %
20.02.2022 17:44 9,9 C 8,9 C 6,1 C 92 % 1002,7 hPa 0,0 l/m 0 min 2 min 0 W/m 48,3 km/h (6 Bft) 95,83 %
20.02.2022 17:46 9,9 C 8,9 C 6,1 C 92 % 1002,5 hPa 0,0 l/m 0 min 2 min 0 W/m 25,7 km/h (4 Bft) 95,74 %
20.02.2022 17:48 9,9 C 8,9 C 6,1 C 92 % 1002,5 hPa 0,0 l/m 0 min 2 min 0 W/m 32,2 km/h (5 Bft) 95,65 %
20.02.2022 17:50 9,8 C 8,9 C 6,1 C 92 % 1002,3 hPa 0,0 l/m 0 min 2 min 0 W/m 45,1 km/h (6 Bft) 93,62 %
20.02.2022 17:52 9,8 C 8,9 C 6,1 C 92 % 1002,4 hPa 0,0 l/m 0 min 2 min 0 W/m 32,2 km/h (5 Bft) 95,74 %
20.02.2022 17:54 9,8 C 8,9 C 6,1 C 92 % 1002,4 hPa 0,0 l/m 0 min 2 min 0 W/m 32,2 km/h (5 Bft) 95,74 %
20.02.2022 17:56 9,8 C 8,9 C 6,1 C 93 % 1002,5 hPa 0,0 l/m 0 min 2 min 0 W/m 45,1 km/h (6 Bft) 95,74 %
20.02.2022 17:58 9,8 C 8,9 C 6,1 C 93 % 1002,7 hPa 0,0 l/m 0 min 2 min 0 W/m 35,4 km/h (5 Bft) 97,87 %
20.02.2022 18:00 9,8 C 8,9 C 6,1 C 93 % 1002,3 hPa 0,0 l/m 0 min 2 min 0 W/m 77,2 km/h (9 Bft) 97,83 %
20.02.2022 18:02 9,8 C 8,9 C 6,1 C 93 % 1002,1 hPa 0,0 l/m 0 min 2 min 0 W/m 51,5 km/h (7 Bft) 95,74 %
20.02.2022 18:04 9,8 C 8,9 C 6,1 C 93 % 1002,2 hPa 0,2 l/m 0 min 2 min 0 W/m 48,3 km/h (6 Bft) 95,74 %
20.02.2022 18:08 9,9 C 8,9 C 6,1 C 92 % 1002,1 hPa 0,0 l/m 0 min 4 min 0 W/m 45,1 km/h (6 Bft) 95,74 %
20.02.2022 18:10 9,9 C 8,9 C 6,1 C 92 % 1002,0 hPa 0,0 l/m 0 min 2 min 0 W/m 35,4 km/h (5 Bft) 95,65 %
20.02.2022 18:12 9,9 C 8,9 C 6,1 C 92 % 1002,0 hPa 0,0 l/m 0 min 2 min 0 W/m 25,7 km/h (4 Bft) 97,87 %
20.02.2022 18:14 9,8 C 8,9 C 6,1 C 93 % 1002,0 hPa 0,0 l/m 0 min 2 min 0 W/m 38,6 km/h (5 Bft) 97,87 %
20.02.2022 18:16 9,8 C 8,9 C 6,1 C 93 % 1001,9 hPa 0,0 l/m 0 min 2 min 0 W/m 61,2 km/h (7 Bft) 95,74 %
20.02.2022 18:18 9,8 C 8,9 C 6,1 C 93 % 1001,9 hPa 0,0 l/m 0 min 2 min 0 W/m 41,8 km/h (6 Bft) 97,87 %
20.02.2022 18:20 9,8 C 8,9 C 6,1 C 93 % 1002,0 hPa 0,0 l/m 0 min 2 min 0 W/m 41,8 km/h (6 Bft) 95,74 %
20.02.2022 18:22 9,8 C 8,9 C 6,1 C 93 % 1001,9 hPa 0,0 l/m 0 min 2 min 0 W/m 54,7 km/h (7 Bft) 97,83 %
20.02.2022 18:24 9,8 C 8,9 C 6,1 C 93 % 1001,8 hPa 0,0 l/m 0 min 2 min 0 W/m 54,7 km/h (7 Bft) 97,87 %
20.02.2022 18:26 9,8 C 8,9 C 6,1 C 93 % 1001,8 hPa 0,0 l/m 0 min 2 min 0 W/m 35,4 km/h (5 Bft) 97,87 %
20.02.2022 18:28 9,8 C 8,9 C 6,1 C 93 % 1001,8 hPa 0,0 l/m 0 min 2 min 0 W/m 29,0 km/h (5 Bft) 95,74 %
20.02.2022 18:30 9,8 C 8,9 C 6,1 C 93 % 1001,7 hPa 0,0 l/m 0 min 2 min 0 W/m 22,5 km/h (4 Bft) 97,87 %
20.02.2022 18:32 9,8 C 8,9 C 6,1 C 93 % 1001,7 hPa 0,0 l/m 0 min 2 min 0 W/m 51,5 km/h (7 Bft) 97,87 %
20.02.2022 18:34 9,8 C 8,9 C 6,1 C 93 % 1001,6 hPa 0,0 l/m 0 min 2 min 0 W/m 41,8 km/h (6 Bft) 97,83 %
20.02.2022 18:36 9,8 C 8,9 C 6,1 C 93 % 1001,5 hPa 0,0 l/m 0 min 2 min 0 W/m 41,8 km/h (6 Bft) 95,74 %
20.02.2022 18:38 9,8 C 8,9 C 6,1 C 93 % 1001,6 hPa 0,0 l/m 0 min 2 min 0 W/m 61,2 km/h (7 Bft) 97,87 %
20.02.2022 18:40 9,8 C 8,3 C 6,1 C 93 % 1001,5 hPa 0,0 l/m 0 min 2 min 0 W/m 67,6 km/h (8 Bft) 97,87 %
20.02.2022 18:42 9,8 C 8,3 C 6,1 C 93 % 1001,4 hPa 0,0 l/m 0 min 2 min 0 W/m 45,1 km/h (6 Bft) 97,87 %
20.02.2022 18:44 9,8 C 8,3 C 6,1 C 93 % 1001,3 hPa 0,0 l/m 0 min 2 min 0 W/m 35,4 km/h (5 Bft) 93,62 %
20.02.2022 18:46 9,8 C 8,9 C 6,1 C 93 % 1001,3 hPa 0,0 l/m 0 min 2 min 0 W/m 32,2 km/h (5 Bft) 97,83 %
20.02.2022 18:48 9,7 C 8,9 C 6,1 C 93 % 1001,2 hPa 0,0 l/m 0 min 2 min 0 W/m 32,2 km/h (5 Bft) 97,87 %
20.02.2022 18:50 9,7 C 8,9 C 6,1 C 93 % 1001,3 hPa 0,0 l/m 0 min 2 min 0 W/m 48,3 km/h (6 Bft) 100,00 %
20.02.2022 18:52 9,8 C 8,9 C 6,1 C 93 % 1001,0 hPa 0,0 l/m 0 min 2 min 0 W/m 48,3 km/h (6 Bft) 97,87 %
20.02.2022 18:54 9,8 C 8,9 C 6,1 C 93 % 1001,1 hPa 0,0 l/m 0 min 2 min 0 W/m 32,2 km/h (5 Bft) 100,00 %
20.02.2022 18:56 9,8 C 8,9 C 6,1 C 93 % 1001,3 hPa 0,2 l/m 0 min 2 min 0 W/m 38,6 km/h (5 Bft) 100,00 %
20.02.2022 18:58 9,8 C 8,9 C 6,1 C 93 % 1000,9 hPa 0,0 l/m 0 min 2 min 0 W/m 38,6 km/h (5 Bft) 100,00 %
20.02.2022 19:00 9,8 C 8,9 C 6,1 C 93 % 1000,9 hPa 0,0 l/m 0 min 2 min 0 W/m 25,7 km/h (4 Bft) 97,87 %
20.02.2022 19:02 9,8 C 8,9 C 6,1 C 93 % 1001,0 hPa 0,0 l/m 0 min 2 min 0 W/m 61,2 km/h (7 Bft) 100,00 %
20.02.2022 19:04 9,9 C 8,9 C 6,1 C 93 % 1000,9 hPa 0,0 l/m 0 min 2 min 0 W/m 32,2 km/h (5 Bft) 100,00 %
20.02.2022 19:06 9,9 C 8,9 C 6,1 C 93 % 1000,7 hPa 0,0 l/m 0 min 2 min 0 W/m 38,6 km/h (5 Bft) 100,00 %
20.02.2022 19:08 9,9 C 8,9 C 6,1 C 93 % 1000,7 hPa 0,0 l/m 0 min 2 min 0 W/m 45,1 km/h (6 Bft) 97,87 %
20.02.2022 19:10 9,9 C 8,9 C 6,1 C 92 % 1000,7 hPa 0,0 l/m 0 min 2 min 0 W/m 41,8 km/h (6 Bft) 100,00 %
20.02.2022 19:12 10,0 C 8,9 C 6,1 C 92 % 1000,7 hPa 0,0 l/m 0 min 2 min 0 W/m 45,1 km/h (6 Bft) 100,00 %
20.02.2022 19:14 10,0 C 8,9 C 6,1 C 92 % 1000,7 hPa 0,0 l/m 0 min 2 min 0 W/m 41,8 km/h (6 Bft) 100,00 %
20.02.2022 19:16 10,1 C 8,9 C 6,1 C 92 % 1000,5 hPa 0,0 l/m 0 min 2 min 0 W/m 54,7 km/h (7 Bft) 97,87 %
20.02.2022 19:18 10,1 C 8,9 C 6,1 C 92 % 1000,4 hPa 0,0 l/m 0 min 2 min 0 W/m 38,6 km/h (5 Bft) 100,00 %
20.02.2022 19:20 10,1 C 8,9 C 6,1 C 92 % 1000,4 hPa 0,0 l/m 0 min 2 min 0 W/m 41,8 km/h (6 Bft) 97,83 %
20.02.2022 19:22 10,1 C 8,9 C 6,1 C 92 % 1000,4 hPa 0,0 l/m 0 min 2 min 0 W/m 41,8 km/h (6 Bft) 95,74 %
20.02.2022 19:24 10,1 C 8,9 C 6,1 C 92 % 1000,4 hPa 0,0 l/m 0 min 2 min 0 W/m 45,1 km/h (6 Bft) 95,74 %
20.02.2022 19:26 10,1 C 8,9 C 6,1 C 91 % 1000,3 hPa 0,0 l/m 0 min 2 min 0 W/m 54,7 km/h (7 Bft) 97,87 %
20.02.2022 19:28 10,1 C 8,9 C 6,1 C 91 % 1000,4 hPa 0,0 l/m 0 min 2 min 0 W/m 45,1 km/h (6 Bft) 97,87 %
20.02.2022 19:30 10,1 C 8,9 C 6,1 C 91 % 1000,3 hPa 0,0 l/m 0 min 2 min 0 W/m 45,1 km/h (6 Bft) 97,87 %
20.02.2022 19:32 10,1 C 8,9 C 6,1 C 91 % 1000,2 hPa 0,0 l/m 0 min 2 min 0 W/m 45,1 km/h (6 Bft) 97,87 %
20.02.2022 19:34 10,2 C 9,4 C 6,1 C 91 % 1000,2 hPa 0,0 l/m 0 min 2 min 0 W/m 45,1 km/h (6 Bft) 97,83 %
20.02.2022 19:36 10,2 C 9,4 C 6,1 C 91 % 1000,3 hPa 0,0 l/m 0 min 2 min 0 W/m 45,1 km/h (6 Bft) 97,87 %
20.02.2022 19:38 10,3 C 9,4 C 6,1 C 90 % 1000,1 hPa 0,0 l/m 0 min 2 min 0 W/m 45,1 km/h (6 Bft) 97,87 %
20.02.2022 19:40 10,3 C 9,4 C 6,1 C 90 % 1000,1 hPa 0,0 l/m 0 min 2 min 0 W/m 38,6 km/h (5 Bft) 97,87 %
20.02.2022 19:42 10,3 C 9,4 C 6,1 C 90 % 1000,1 hPa 0,0 l/m 0 min 2 min 0 W/m 35,4 km/h (5 Bft) 97,87 %
20.02.2022 19:44 10,3 C 9,4 C 6,1 C 90 % 1000,0 hPa 0,0 l/m 0 min 2 min 0 W/m 67,6 km/h (8 Bft) 95,65 %
20.02.2022 19:46 10,3 C 9,4 C 6,1 C 90 % 1000,0 hPa 0,0 l/m 0 min 2 min 0 W/m 45,1 km/h (6 Bft) 97,87 %
20.02.2022 19:48 10,4 C 9,4 C 6,1 C 90 % 999,8 hPa 0,0 l/m 0 min 2 min 0 W/m 41,8 km/h (6 Bft) 97,87 %
20.02.2022 19:50 10,4 C 9,4 C 6,1 C 90 % 999,9 hPa 0,0 l/m 0 min 2 min 0 W/m 70,8 km/h (8 Bft) 97,87 %
20.02.2022 19:52 10,4 C 8,9 C 6,1 C 90 % 999,9 hPa 0,0 l/m 0 min 2 min 0 W/m 41,8 km/h (6 Bft) 100,00 %
20.02.2022 19:54 10,4 C 8,9 C 6,1 C 89 % 999,7 hPa 0,0 l/m 0 min 2 min 0 W/m 35,4 km/h (5 Bft) 97,87 %
20.02.2022 19:56 10,4 C 8,9 C 6,1 C 89 % 999,6 hPa 0,0 l/m 0 min 2 min 0 W/m 41,8 km/h (6 Bft) 97,83 %
20.02.2022 19:58 10,4 C 9,4 C 6,1 C 89 % 999,7 hPa 0,2 l/m 0 min 2 min 0 W/m 45,1 km/h (6 Bft) 97,87 %
20.02.2022 20:00 10,5 C 9,4 C 6,1 C 89 % 999,7 hPa 0,0 l/m 0 min 2 min 0 W/m 45,1 km/h (6 Bft) 97,87 %
20.02.2022 20:02 10,5 C 9,4 C 6,1 C 89 % 999,7 hPa 0,0 l/m 0 min 2 min 0 W/m 48,3 km/h (6 Bft) 97,14 %
20.02.2022 20:04 10,5 C 9,4 C 6,1 C 89 % 999,5 hPa 0,0 l/m 0 min 2 min 0 W/m 41,8 km/h (6 Bft) 97,87 %
20.02.2022 20:06 10,5 C 8,9 C 6,1 C 89 % 999,5 hPa 0,0 l/m 0 min 2 min 0 W/m 41,8 km/h (6 Bft) 98,31 %
20.02.2022 20:08 10,4 C 8,9 C 6,1 C 89 % 999,4 hPa 0,2 l/m 0 min 2 min 0 W/m 51,5 km/h (7 Bft) 100,00 %
20.02.2022 20:10 10,4 C 8,9 C 6,1 C 89 % 999,3 hPa 0,0 l/m 0 min 2 min 0 W/m 67,6 km/h (8 Bft) 97,87 %
20.02.2022 20:12 10,4 C 8,9 C 6,1 C 90 % 999,4 hPa 0,0 l/m 0 min 2 min 0 W/m 25,7 km/h (4 Bft) 94,23 %
20.02.2022 20:14 10,4 C 8,9 C 6,1 C 90 % 999,3 hPa 0,0 l/m 0 min 2 min 0 W/m 48,3 km/h (6 Bft) 97,87 %
20.02.2022 20:16 10,4 C 8,9 C 6,1 C 90 % 999,2 hPa 0,0 l/m 0 min 2 min 0 W/m 32,2 km/h (5 Bft) 97,56 %
20.02.2022 20:18 10,4 C 8,9 C 6,1 C 90 % 999,0 hPa 0,0 l/m 0 min 2 min 0 W/m 45,1 km/h (6 Bft) 98,11 %
20.02.2022 20:20 10,4 C 8,9 C 6,1 C 90 % 998,9 hPa 0,0 l/m 0 min 2 min 0 W/m 29,0 km/h (5 Bft) 100,00 %
20.02.2022 20:22 10,4 C 8,9 C 6,1 C 90 % 998,9 hPa 0,2 l/m 0 min 2 min 0 W/m 45,1 km/h (6 Bft) 95,65 %
20.02.2022 20:24 10,4 C 9,4 C 6,1 C 90 % 998,7 hPa 0,0 l/m 0 min 2 min 0 W/m 57,9 km/h (7 Bft) 97,87 %
20.02.2022 20:26 10,4 C 9,4 C 6,1 C 90 % 998,7 hPa 0,0 l/m 0 min 2 min 0 W/m 48,3 km/h (6 Bft) 97,87 %
20.02.2022 20:28 10,4 C 9,4 C 6,1 C 90 % 998,7 hPa 0,0 l/m 0 min 2 min 0 W/m 57,9 km/h (7 Bft) 97,87 %
20.02.2022 20:30 10,4 C 9,4 C 6,1 C 89 % 998,6 hPa 0,0 l/m 0 min 2 min 0 W/m 35,4 km/h (5 Bft) 93,62 %
20.02.2022 20:32 10,5 C 9,4 C 6,1 C 89 % 998,6 hPa 0,0 l/m 0 min 2 min 0 W/m 61,2 km/h (7 Bft) 100,00 %
20.02.2022 20:34 10,5 C 9,4 C 6,1 C 89 % 998,4 hPa 0,0 l/m 0 min 2 min 0 W/m 45,1 km/h (6 Bft) 100,00 %
20.02.2022 20:36 10,6 C 9,4 C 6,1 C 89 % 998,3 hPa 0,0 l/m 0 min 2 min 0 W/m 51,5 km/h (7 Bft) 97,87 %
20.02.2022 20:38 10,6 C 9,4 C 6,1 C 89 % 998,4 hPa 0,0 l/m 0 min 2 min 0 W/m 64,4 km/h (8 Bft) 97,87 %
20.02.2022 20:40 10,6 C 9,4 C 6,1 C 88 % 998,2 hPa 0,0 l/m 0 min 2 min 0 W/m 29,0 km/h (5 Bft) 95,74 %
20.02.2022 20:42 10,6 C 9,4 C 6,1 C 88 % 998,3 hPa 0,0 l/m 0 min 2 min 0 W/m 48,3 km/h (6 Bft) 100,00 %
20.02.2022 20:44 10,7 C 9,4 C 6,1 C 88 % 998,2 hPa 0,0 l/m 0 min 2 min 0 W/m 41,8 km/h (6 Bft) 100,00 %
20.02.2022 20:46 10,7 C 9,4 C 6,1 C 88 % 998,2 hPa 0,0 l/m 0 min 2 min 0 W/m 77,2 km/h (9 Bft) 100,00 %
20.02.2022 20:48 10,7 C 10,0 C 6,1 C 88 % 998,1 hPa 0,0 l/m 0 min 2 min 0 W/m 48,3 km/h (6 Bft) 97,87 %
20.02.2022 20:50 10,8 C 10,0 C 6,1 C 87 % 997,9 hPa 0,0 l/m 0 min 2 min 0 W/m 64,4 km/h (8 Bft) 97,87 %
20.02.2022 20:52 10,8 C 10,0 C 6,1 C 87 % 997,9 hPa 0,0 l/m 0 min 2 min 0 W/m 45,1 km/h (6 Bft) 100,00 %
20.02.2022 20:54 10,8 C 10,0 C 6,1 C 87 % 997,6 hPa 0,0 l/m 0 min 2 min 0 W/m 41,8 km/h (6 Bft) 100,00 %
20.02.2022 20:56 10,8 C 10,0 C 6,1 C 87 % 997,7 hPa 0,0 l/m 0 min 2 min 0 W/m 35,4 km/h (5 Bft) 100,00 %
20.02.2022 20:58 10,8 C 10,0 C 6,1 C 87 % 997,6 hPa 0,0 l/m 0 min 2 min 0 W/m 38,6 km/h (5 Bft) 100,00 %
20.02.2022 21:00 10,9 C 10,0 C 6,1 C 87 % 997,7 hPa 0,0 l/m 0 min 2 min 0 W/m 61,2 km/h (7 Bft) 100,00 %
20.02.2022 21:02 10,9 C 10,0 C 6,1 C 86 % 997,4 hPa 0,0 l/m 0 min 2 min 0 W/m 54,7 km/h (7 Bft) 100,00 %
20.02.2022 21:04 10,9 C 10,0 C 6,1 C 86 % 997,4 hPa 0,0 l/m 0 min 0 min 0 W/m 45,1 km/h (6 Bft) 97,87 %
20.02.2022 21:06 10,9 C 10,0 C 6,1 C 86 % 997,4 hPa 0,0 l/m 0 min 0 min 0 W/m 45,1 km/h (6 Bft) 95,65 %
20.02.2022 21:08 11,0 C 10,0 C 6,1 C 86 % 997,4 hPa 0,0 l/m 0 min 0 min 0 W/m 57,9 km/h (7 Bft) 97,87 %
20.02.2022 21:10 11,1 C 10,0 C 6,1 C 85 % 997,3 hPa 0,0 l/m 0 min 0 min 0 W/m 41,8 km/h (6 Bft) 97,92 %
20.02.2022 21:12 11,1 C 10,0 C 6,1 C 85 % 997,2 hPa 0,0 l/m 0 min 0 min 0 W/m 51,5 km/h (7 Bft) 97,87 %
20.02.2022 21:14 11,1 C 10,0 C 6,1 C 85 % 997,0 hPa 0,0 l/m 0 min 2 min 0 W/m 41,8 km/h (6 Bft) 95,74 %
20.02.2022 21:16 11,1 C 10,0 C 6,1 C 85 % 997,0 hPa 0,0 l/m 0 min 2 min 0 W/m 35,4 km/h (5 Bft) 95,74 %
20.02.2022 21:18 11,1 C 10,0 C 6,1 C 85 % 997,1 hPa 0,0 l/m 0 min 2 min 0 W/m 54,7 km/h (7 Bft) 95,65 %
20.02.2022 21:20 11,1 C 10,0 C 6,1 C 85 % 997,0 hPa 0,0 l/m 0 min 2 min 0 W/m 41,8 km/h (6 Bft) 95,74 %
20.02.2022 21:22 11,1 C 10,0 C 6,1 C 85 % 996,9 hPa 0,0 l/m 0 min 2 min 0 W/m 64,4 km/h (8 Bft) 95,74 %
20.02.2022 21:24 11,1 C 10,0 C 6,1 C 85 % 997,0 hPa 0,0 l/m 0 min 2 min 0 W/m 77,2 km/h (9 Bft) 93,62 %
20.02.2022 21:26 11,1 C 10,0 C 6,1 C 85 % 997,0 hPa 0,0 l/m 0 min 2 min 0 W/m 51,5 km/h (7 Bft) 95,74 %
20.02.2022 21:28 11,0 C 10,0 C 6,1 C 86 % 996,8 hPa 0,0 l/m 0 min 2 min 0 W/m 51,5 km/h (7 Bft) 95,74 %
20.02.2022 21:30 10,9 C 10,0 C 6,1 C 86 % 996,7 hPa 0,0 l/m 0 min 2 min 0 W/m 45,1 km/h (6 Bft) 95,65 %
20.02.2022 21:32 10,9 C 10,0 C 6,1 C 86 % 996,6 hPa 0,0 l/m 0 min 2 min 0 W/m 48,3 km/h (6 Bft) 95,92 %
20.02.2022 21:34 10,9 C 10,0 C 6,1 C 86 % 996,5 hPa 0,0 l/m 0 min 2 min 0 W/m 48,3 km/h (6 Bft) 95,83 %
20.02.2022 21:36 10,9 C 10,0 C 6,1 C 86 % 996,7 hPa 0,0 l/m 0 min 2 min 0 W/m 38,6 km/h (5 Bft) 95,74 %
20.02.2022 21:38 10,9 C 10,0 C 6,1 C 86 % 996,4 hPa 0,0 l/m 0 min 2 min 0 W/m 48,3 km/h (6 Bft) 93,62 %
20.02.2022 21:40 10,9 C 10,0 C 6,1 C 86 % 996,4 hPa 0,0 l/m 0 min 2 min 0 W/m 38,6 km/h (5 Bft) 95,65 %
20.02.2022 21:42 11,0 C 10,0 C 6,1 C 86 % 996,3 hPa 0,0 l/m 0 min 2 min 0 W/m 57,9 km/h (7 Bft) 95,74 %
20.02.2022 21:44 11,0 C 10,0 C 6,1 C 86 % 996,4 hPa 0,0 l/m 0 min 0 min 0 W/m 48,3 km/h (6 Bft) 97,87 %
20.02.2022 21:46 11,0 C 10,6 C 6,1 C 86 % 996,2 hPa 0,0 l/m 0 min 0 min 0 W/m 67,6 km/h (8 Bft) 97,87 %
20.02.2022 21:48 11,1 C 10,6 C 6,1 C 85 % 996,2 hPa 0,0 l/m 0 min 0 min 0 W/m 67,6 km/h (8 Bft) 100,00 %
20.02.2022 21:50 11,1 C 10,6 C 6,1 C 85 % 996,3 hPa 0,0 l/m 0 min 0 min 0 W/m 64,4 km/h (8 Bft) 91,49 %
20.02.2022 21:52 11,1 C 10,0 C 6,1 C 85 % 996,2 hPa 0,0 l/m 0 min 0 min 0 W/m 45,1 km/h (6 Bft) 97,83 %
20.02.2022 21:54 11,1 C 10,0 C 6,1 C 85 % 996,0 hPa 0,0 l/m 0 min 0 min 0 W/m 32,2 km/h (5 Bft) 97,87 %
20.02.2022 21:56 11,1 C 10,0 C 6,1 C 86 % 996,2 hPa 0,0 l/m 0 min 0 min 0 W/m 54,7 km/h (7 Bft) 95,74 %
20.02.2022 21:58 11,1 C 10,0 C 6,1 C 86 % 995,9 hPa 0,0 l/m 0 min 0 min 0 W/m 61,2 km/h (7 Bft) 97,87 %
20.02.2022 22:00 11,1 C 10,6 C 6,1 C 85 % 996,0 hPa 0,0 l/m 0 min 0 min 0 W/m 54,7 km/h (7 Bft) 100,00 %
20.02.2022 22:02 11,1 C 10,0 C 6,1 C 85 % 995,8 hPa 0,0 l/m 0 min 0 min 0 W/m 38,6 km/h (5 Bft) 100,00 %
20.02.2022 22:04 11,1 C 10,0 C 6,1 C 86 % 995,7 hPa 0,0 l/m 0 min 2 min 0 W/m 54,7 km/h (7 Bft) 100,00 %
20.02.2022 22:06 11,1 C 10,0 C 6,1 C 86 % 995,8 hPa 0,0 l/m 0 min 0 min 0 W/m 67,6 km/h (8 Bft) 100,00 %
20.02.2022 22:08 11,1 C 10,0 C 6,1 C 86 % 995,5 hPa 0,0 l/m 0 min 0 min 0 W/m 51,5 km/h (7 Bft) 95,74 %
20.02.2022 22:10 11,0 C 10,0 C 6,1 C 86 % 995,9 hPa 0,0 l/m 0 min 2 min 0 W/m 86,9 km/h (9 Bft) 100,00 %
20.02.2022 22:12 11,0 C 10,0 C 6,1 C 86 % 995,6 hPa 0,0 l/m 0 min 2 min 0 W/m 51,5 km/h (7 Bft) 97,87 %
20.02.2022 22:14 10,9 C 10,0 C 6,1 C 87 % 995,7 hPa 0,0 l/m 0 min 2 min 0 W/m 41,8 km/h (6 Bft) 100,00 %
20.02.2022 22:16 10,9 C 10,0 C 6,1 C 87 % 995,4 hPa 0,0 l/m 0 min 2 min 0 W/m 61,2 km/h (7 Bft) 97,83 %
20.02.2022 22:18 10,8 C 10,0 C 6,1 C 87 % 995,2 hPa 0,2 l/m 0 min 2 min 0 W/m 70,8 km/h (8 Bft) 100,00 %
20.02.2022 22:20 10,8 C 10,0 C 6,1 C 87 % 995,4 hPa 0,0 l/m 0 min 2 min 0 W/m 48,3 km/h (6 Bft) 97,87 %
20.02.2022 22:22 10,8 C 10,0 C 6,1 C 87 % 995,3 hPa 0,0 l/m 0 min 2 min 0 W/m 61,2 km/h (7 Bft) 97,14 %
20.02.2022 22:24 10,8 C 10,0 C 6,1 C 87 % 995,2 hPa 0,0 l/m 0 min 2 min 0 W/m 35,4 km/h (5 Bft) 100,00 %
20.02.2022 22:26 10,8 C 10,0 C 6,1 C 88 % 995,7 hPa 0,0 l/m 0 min 2 min 0 W/m 48,3 km/h (6 Bft) 100,00 %
20.02.2022 22:28 10,7 C 9,4 C 6,1 C 88 % 995,0 hPa 0,0 l/m 0 min 2 min 0 W/m 48,3 km/h (6 Bft) 97,87 %
20.02.2022 22:30 10,7 C 9,4 C 6,1 C 88 % 995,4 hPa 0,0 l/m 0 min 2 min 0 W/m 64,4 km/h (8 Bft) 95,65 %
20.02.2022 22:32 10,6 C 9,4 C 6,1 C 89 % 995,0 hPa 0,0 l/m 0 min 2 min 0 W/m 57,9 km/h (7 Bft) 93,62 %
20.02.2022 22:34 10,6 C 9,4 C 6,1 C 89 % 994,9 hPa 0,0 l/m 0 min 2 min 0 W/m 54,7 km/h (7 Bft) 97,87 %
20.02.2022 22:36 10,4 C 9,4 C 6,1 C 89 % 994,9 hPa 0,0 l/m 0 min 2 min 0 W/m 61,2 km/h (7 Bft) 95,74 %
20.02.2022 22:38 10,4 C 9,4 C 6,1 C 90 % 994,9 hPa 0,0 l/m 0 min 2 min 0 W/m 61,2 km/h (7 Bft) 97,87 %
20.02.2022 22:40 10,4 C 8,9 C 6,1 C 90 % 994,9 hPa 0,0 l/m 0 min 2 min 0 W/m 48,3 km/h (6 Bft) 97,87 %
20.02.2022 22:42 10,3 C 8,9 C 6,1 C 90 % 994,8 hPa 0,0 l/m 0 min 2 min 0 W/m 41,8 km/h (6 Bft) 97,83 %
20.02.2022 22:44 10,2 C 8,9 C 6,1 C 91 % 994,8 hPa 0,0 l/m 0 min 2 min 0 W/m 48,3 km/h (6 Bft) 97,87 %
20.02.2022 22:46 10,2 C 8,9 C 6,1 C 91 % 994,6 hPa 0,0 l/m 0 min 2 min 0 W/m 64,4 km/h (8 Bft) 95,74 %
20.02.2022 22:48 10,1 C 8,9 C 6,1 C 91 % 994,5 hPa 0,0 l/m 0 min 2 min 0 W/m 45,1 km/h (6 Bft) 97,87 %
20.02.2022 22:50 10,1 C 9,4 C 6,1 C 92 % 994,4 hPa 0,0 l/m 0 min 2 min 0 W/m 48,3 km/h (6 Bft) 97,87 %
20.02.2022 22:52 10,1 C 9,4 C 6,1 C 92 % 994,4 hPa 0,0 l/m 0 min 2 min 0 W/m 54,7 km/h (7 Bft) 98,11 %
20.02.2022 22:54 10,1 C 9,4 C 6,1 C 92 % 994,3 hPa 0,0 l/m 0 min 2 min 0 W/m 54,7 km/h (7 Bft) 95,74 %
20.02.2022 22:56 10,1 C 9,4 C 6,1 C 92 % 994,3 hPa 0,0 l/m 0 min 2 min 0 W/m 67,6 km/h (8 Bft) 97,87 %
20.02.2022 22:58 10,1 C 9,4 C 6,1 C 92 % 994,4 hPa 0,0 l/m 0 min 0 min 0 W/m 77,2 km/h (9 Bft) 97,87 %
20.02.2022 23:00 10,1 C 9,4 C 6,1 C 92 % 994,4 hPa 0,0 l/m 0 min 0 min 0 W/m 64,4 km/h (8 Bft) 97,87 %
20.02.2022 23:02 10,1 C 9,4 C 6,1 C 92 % 994,3 hPa 0,0 l/m 0 min 0 min 0 W/m 48,3 km/h (6 Bft) 97,87 %
20.02.2022 23:04 10,1 C 9,4 C 6,1 C 92 % 994,3 hPa 0,0 l/m 0 min 0 min 0 W/m 61,2 km/h (7 Bft) 97,87 %
20.02.2022 23:06 10,1 C 9,4 C 6,1 C 92 % 993,9 hPa 0,0 l/m 0 min 2 min 0 W/m 45,1 km/h (6 Bft) 93,62 %
20.02.2022 23:08 10,2 C 9,4 C 6,1 C 92 % 994,1 hPa 0,0 l/m 0 min 2 min 0 W/m 51,5 km/h (7 Bft) 93,75 %
20.02.2022 23:10 10,2 C 9,4 C 6,1 C 92 % 993,8 hPa 0,0 l/m 0 min 2 min 0 W/m 99,8 km/h (10 Bft) 95,74 %
20.02.2022 23:12 10,3 C 9,4 C 6,1 C 91 % 993,6 hPa 0,0 l/m 0 min 2 min 0 W/m 61,2 km/h (7 Bft) 97,87 %
20.02.2022 23:14 10,3 C 9,4 C 6,1 C 91 % 993,5 hPa 0,0 l/m 0 min 2 min 0 W/m 67,6 km/h (8 Bft) 95,74 %
20.02.2022 23:16 10,4 C 10,0 C 6,1 C 90 % 993,3 hPa 0,0 l/m 0 min 0 min 0 W/m 70,8 km/h (8 Bft) 95,74 %
20.02.2022 23:18 10,5 C 10,0 C 6,1 C 90 % 993,4 hPa 0,0 l/m 0 min 0 min 0 W/m 77,2 km/h (9 Bft) 97,87 %
20.02.2022 23:20 10,6 C 10,0 C 6,1 C 89 % 993,2 hPa 0,0 l/m 0 min 2 min 0 W/m 57,9 km/h (7 Bft) 97,96 %
20.02.2022 23:22 10,6 C 10,0 C 6,1 C 89 % 993,3 hPa 0,0 l/m 0 min 2 min 0 W/m 61,2 km/h (7 Bft) 97,14 %
20.02.2022 23:24 10,6 C 10,0 C 6,1 C 89 % 993,5 hPa 0,0 l/m 0 min 2 min 0 W/m 61,2 km/h (7 Bft) 97,87 %
20.02.2022 23:26 10,7 C 9,4 C 6,7 C 89 % 993,1 hPa 0,0 l/m 0 min 2 min 0 W/m 77,2 km/h (9 Bft) 97,87 %
20.02.2022 23:28 10,6 C 9,4 C 6,1 C 90 % 993,2 hPa 0,2 l/m 0 min 2 min 0 W/m 48,3 km/h (6 Bft) 97,83 %
20.02.2022 23:30 10,6 C 8,9 C 6,1 C 90 % 993,1 hPa 0,0 l/m 0 min 2 min 0 W/m 48,3 km/h (6 Bft) 97,87 %
20.02.2022 23:32 10,5 C 8,9 C 6,1 C 90 % 993,0 hPa 0,0 l/m 0 min 2 min 0 W/m 57,9 km/h (7 Bft) 97,87 %
20.02.2022 23:34 10,4 C 8,9 C 6,1 C 91 % 993,2 hPa 0,2 l/m 0 min 2 min 0 W/m 38,6 km/h (5 Bft) 97,87 %
20.02.2022 23:36 10,4 C 8,9 C 6,1 C 91 % 993,0 hPa 0,0 l/m 0 min 2 min 0 W/m 54,7 km/h (7 Bft) 95,74 %
20.02.2022 23:38 10,4 C 9,4 C 6,1 C 91 % 993,1 hPa 0,0 l/m 0 min 2 min 0 W/m 61,2 km/h (7 Bft) 97,87 %
20.02.2022 23:40 10,4 C 9,4 C 6,1 C 91 % 993,3 hPa 0,0 l/m 0 min 2 min 0 W/m 61,2 km/h (7 Bft) 100,00 %
20.02.2022 23:42 10,5 C 8,9 C 6,1 C 91 % 993,3 hPa 0,0 l/m 0 min 2 min 0 W/m 67,6 km/h (8 Bft) 97,92 %
20.02.2022 23:44 10,5 C 8,9 C 6,1 C 91 % 994,1 hPa 0,2 l/m 0 min 2 min 0 W/m 45,1 km/h (6 Bft) 100,00 %
20.02.2022 23:46 9,9 C 6,7 C 5,0 C 90 % 996,2 hPa 0,8 l/m 0 min 2 min 0 W/m 51,5 km/h (7 Bft) 100,00 %
20.02.2022 23:48 8,3 C 4,4 C 2,2 C 85 % 996,3 hPa 0,8 l/m 0 min 2 min 0 W/m 32,2 km/h (5 Bft) 100,00 %
20.02.2022 23:50 7,1 C 3,9 C 2,2 C 86 % 996,2 hPa 0,4 l/m 0 min 2 min 0 W/m 38,6 km/h (5 Bft) 100,00 %
20.02.2022 23:52 6,3 C 3,9 C 2,2 C 88 % 996,3 hPa 0,0 l/m 0 min 2 min 0 W/m 38,6 km/h (5 Bft) 100,00 %
20.02.2022 23:54 5,8 C 3,9 C 2,2 C 89 % 996,3 hPa 0,2 l/m 0 min 2 min 0 W/m 38,6 km/h (5 Bft) 100,00 %
20.02.2022 23:56 5,6 C 3,9 C 2,2 C 90 % 996,4 hPa 0,0 l/m 0 min 2 min 0 W/m 25,7 km/h (4 Bft) 100,00 %
20.02.2022 23:58 5,5 C 3,9 C 2,2 C 91 % 996,3 hPa 0,0 l/m 0 min 2 min 0 W/m 25,7 km/h (4 Bft) 100,00 %
_ Min-Zeit 05:52 05:26 06:52 01:08 23:32 - - - - 05:06 08:44
Minimum _ 3,8 C 2,8 C 0,0 C 85 % 993,0 hPa - - - - 3,2 km/h (1 Bft) 55,56 %
_ Max-Zeit 21:10 21:46 23:26 08:30 04:40 00:08 00:00 00:08 11:52 23:10 00:08
Maximum _ 11,1 C 10,6 C 6,7 C 97 % 1012,9 hPa 1,0 l/m 0 min 4 min 149 W/m 99,8 km/h
SW (10 Bft)
100,00 %
Durchschnitt _ 8,0 C 7,1 C 4,0 C 91 % 1006,0 hPa #11,2 l/m #0 min. #15:04 h 56 W/m 32,9 km/h (5 Bft) 97,51 %
© 2022 W. Hausmann